Wetterdaten: Montag, 09.05.2016
Datum Zeit Temp. Aussen Temp. o. S. +5cm Feuchte Auss BlattFeu 1 Luftdruck Regen Sonnenschein Regendauer Solar Windben Empfang
09.05.2016 00:00 18,9 C 18,3 C 16,1 C 59 % 0 lf 1011,4 hPa 0,0 l/m 0 min 0 min 0 W/m 12,6 km/h (3 Bft) 95,74 %
09.05.2016 00:02 18,9 C 18,3 C 16,1 C 60 % 0 lf 1011,4 hPa 0,0 l/m 0 min 0 min 0 W/m 12,6 km/h (3 Bft) 97,73 %
09.05.2016 00:06 18,8 C 17,8 C 16,1 C 60 % 0 lf 1011,4 hPa 0,0 l/m 0 min 0 min 0 W/m 16,7 km/h (3 Bft) 97,85 %
09.05.2016 00:08 18,8 C 17,8 C 16,1 C 60 % 0 lf 1011,4 hPa 0,0 l/m 0 min 0 min 0 W/m 16,7 km/h (3 Bft) 97,87 %
09.05.2016 00:10 18,7 C 18,3 C 16,1 C 60 % 0 lf 1011,4 hPa 0,0 l/m 0 min 0 min 0 W/m 16,7 km/h (3 Bft) 93,62 %
09.05.2016 00:12 18,7 C 18,3 C 16,1 C 60 % 0 lf 1011,4 hPa 0,0 l/m 0 min 0 min 0 W/m 18,8 km/h (3 Bft) 100,00 %
09.05.2016 00:14 18,6 C 18,3 C 16,1 C 61 % 0 lf 1011,5 hPa 0,0 l/m 0 min 0 min 0 W/m 12,6 km/h (3 Bft) 97,87 %
09.05.2016 00:16 18,6 C 18,3 C 16,1 C 61 % 0 lf 1011,5 hPa 0,0 l/m 0 min 0 min 0 W/m 16,7 km/h (3 Bft) 100,00 %
09.05.2016 00:18 18,6 C 17,8 C 16,1 C 61 % 0 lf 1011,5 hPa 0,0 l/m 0 min 0 min 0 W/m 16,7 km/h (3 Bft) 97,83 %
09.05.2016 00:20 18,5 C 17,8 C 16,1 C 61 % 0 lf 1011,5 hPa 0,0 l/m 0 min 0 min 0 W/m 16,7 km/h (3 Bft) 97,87 %
09.05.2016 00:22 18,5 C 17,8 C 16,1 C 61 % 0 lf 1011,5 hPa 0,0 l/m 0 min 0 min 0 W/m 16,7 km/h (3 Bft) 97,87 %
09.05.2016 00:24 18,4 C 17,8 C 16,1 C 61 % 0 lf 1011,5 hPa 0,0 l/m 0 min 0 min 0 W/m 14,6 km/h (3 Bft) 97,87 %
09.05.2016 00:26 18,4 C 17,8 C 16,1 C 62 % 0 lf 1011,5 hPa 0,0 l/m 0 min 0 min 0 W/m 16,7 km/h (3 Bft) 97,87 %
09.05.2016 00:28 18,4 C 17,8 C 16,1 C 62 % 0 lf 1011,5 hPa 0,0 l/m 0 min 0 min 0 W/m 23,0 km/h (4 Bft) 97,87 %
09.05.2016 00:30 18,3 C 17,8 C 16,1 C 62 % 0 lf 1011,5 hPa 0,0 l/m 0 min 0 min 0 W/m 12,6 km/h (3 Bft) 97,83 %
09.05.2016 00:32 18,3 C 17,8 C 16,1 C 62 % 0 lf 1011,5 hPa 0,0 l/m 0 min 0 min 0 W/m 20,9 km/h (4 Bft) 95,74 %
09.05.2016 00:34 18,3 C 17,8 C 16,1 C 62 % 0 lf 1011,5 hPa 0,0 l/m 0 min 0 min 0 W/m 18,8 km/h (3 Bft) 93,62 %
09.05.2016 00:36 18,3 C 17,8 C 16,1 C 62 % 0 lf 1011,5 hPa 0,0 l/m 0 min 0 min 0 W/m 14,6 km/h (3 Bft) 97,87 %
09.05.2016 00:38 18,2 C 17,8 C 16,1 C 62 % 0 lf 1011,5 hPa 0,0 l/m 0 min 0 min 0 W/m 14,6 km/h (3 Bft) 97,87 %
09.05.2016 00:40 18,2 C 17,8 C 15,6 C 62 % 0 lf 1011,5 hPa 0,0 l/m 0 min 0 min 0 W/m 14,6 km/h (3 Bft) 97,87 %
09.05.2016 00:42 18,2 C 17,8 C 16,1 C 62 % 0 lf 1011,6 hPa 0,0 l/m 0 min 0 min 0 W/m 18,8 km/h (3 Bft) 93,48 %
09.05.2016 00:44 18,2 C 17,8 C 16,1 C 62 % 0 lf 1011,5 hPa 0,0 l/m 0 min 0 min 0 W/m 14,6 km/h (3 Bft) 97,87 %
09.05.2016 00:46 18,1 C 17,8 C 15,6 C 62 % 0 lf 1011,6 hPa 0,0 l/m 0 min 0 min 0 W/m 12,6 km/h (3 Bft) 97,87 %
09.05.2016 00:48 18,1 C 17,8 C 15,6 C 62 % 0 lf 1011,6 hPa 0,0 l/m 0 min 0 min 0 W/m 14,6 km/h (3 Bft) 95,74 %
09.05.2016 00:50 18,1 C 17,2 C 15,6 C 62 % 0 lf 1011,6 hPa 0,0 l/m 0 min 0 min 0 W/m 16,7 km/h (3 Bft) 93,62 %
09.05.2016 00:52 18,1 C 17,2 C 15,6 C 62 % 0 lf 1011,6 hPa 0,0 l/m 0 min 0 min 0 W/m 16,7 km/h (3 Bft) 89,36 %
09.05.2016 00:54 18,0 C 17,2 C 15,6 C 62 % 0 lf 1011,6 hPa 0,0 l/m 0 min 0 min 0 W/m 18,8 km/h (3 Bft) 93,48 %
09.05.2016 00:56 17,9 C 17,2 C 15,6 C 63 % 0 lf 1011,6 hPa 0,0 l/m 0 min 0 min 0 W/m 14,6 km/h (3 Bft) 91,49 %
09.05.2016 00:58 17,9 C 17,2 C 15,6 C 63 % 0 lf 1011,6 hPa 0,0 l/m 0 min 0 min 0 W/m 12,6 km/h (3 Bft) 93,62 %
09.05.2016 01:00 17,9 C 17,2 C 15,0 C 63 % 0 lf 1011,6 hPa 0,0 l/m 0 min 0 min 0 W/m 16,7 km/h (3 Bft) 91,49 %
09.05.2016 01:02 17,8 C 17,2 C 15,0 C 63 % 0 lf 1011,6 hPa 0,0 l/m 0 min 0 min 0 W/m 14,6 km/h (3 Bft) 91,49 %
09.05.2016 01:04 17,8 C 17,2 C 15,6 C 63 % 0 lf 1011,6 hPa 0,0 l/m 0 min 0 min 0 W/m 12,6 km/h (3 Bft) 93,62 %
09.05.2016 01:06 17,8 C 17,2 C 15,6 C 63 % 0 lf 1011,6 hPa 0,0 l/m 0 min 0 min 0 W/m 14,6 km/h (3 Bft) 95,65 %
09.05.2016 01:08 17,8 C 17,2 C 15,0 C 63 % 0 lf 1011,6 hPa 0,0 l/m 0 min 0 min 0 W/m 12,6 km/h (3 Bft) 93,62 %
09.05.2016 01:10 17,7 C 16,7 C 15,0 C 63 % 0 lf 1011,5 hPa 0,0 l/m 0 min 0 min 0 W/m 12,6 km/h (3 Bft) 95,74 %
09.05.2016 01:12 17,7 C 16,7 C 15,0 C 63 % 0 lf 1011,5 hPa 0,0 l/m 0 min 0 min 0 W/m 14,6 km/h (3 Bft) 95,74 %
09.05.2016 01:14 17,6 C 16,7 C 15,0 C 63 % 0 lf 1011,5 hPa 0,0 l/m 0 min 0 min 0 W/m 12,6 km/h (3 Bft) 93,62 %
09.05.2016 01:16 17,6 C 17,2 C 15,0 C 63 % 0 lf 1011,5 hPa 0,0 l/m 0 min 0 min 0 W/m 12,6 km/h (3 Bft) 91,49 %
09.05.2016 01:18 17,6 C 17,2 C 15,0 C 63 % 0 lf 1011,6 hPa 0,0 l/m 0 min 0 min 0 W/m 16,7 km/h (3 Bft) 93,48 %
09.05.2016 01:20 17,5 C 17,2 C 15,0 C 64 % 0 lf 1011,7 hPa 0,0 l/m 0 min 0 min 0 W/m 14,6 km/h (3 Bft) 91,49 %
09.05.2016 01:22 17,4 C 16,7 C 15,0 C 64 % 0 lf 1011,6 hPa 0,0 l/m 0 min 0 min 0 W/m 14,6 km/h (3 Bft) 95,74 %
09.05.2016 01:24 17,4 C 16,7 C 15,0 C 64 % 0 lf 1011,7 hPa 0,0 l/m 0 min 0 min 0 W/m 14,6 km/h (3 Bft) 95,74 %
09.05.2016 01:26 17,4 C 16,7 C 15,0 C 64 % 0 lf 1011,6 hPa 0,0 l/m 0 min 0 min 0 W/m 14,6 km/h (3 Bft) 93,62 %
09.05.2016 01:28 17,4 C 16,7 C 15,0 C 64 % 0 lf 1011,7 hPa 0,0 l/m 0 min 0 min 0 W/m 16,7 km/h (3 Bft) 89,13 %
09.05.2016 01:30 17,3 C 16,7 C 15,0 C 64 % 0 lf 1011,6 hPa 0,0 l/m 0 min 0 min 0 W/m 14,6 km/h (3 Bft) 91,49 %
09.05.2016 01:32 17,3 C 16,7 C 15,0 C 64 % 0 lf 1011,6 hPa 0,0 l/m 0 min 0 min 0 W/m 12,6 km/h (3 Bft) 91,49 %
09.05.2016 01:34 17,3 C 16,7 C 15,0 C 64 % 0 lf 1011,7 hPa 0,0 l/m 0 min 0 min 0 W/m 16,7 km/h (3 Bft) 93,62 %
09.05.2016 01:36 17,2 C 16,7 C 15,0 C 64 % 0 lf 1011,7 hPa 0,0 l/m 0 min 0 min 0 W/m 14,6 km/h (3 Bft) 91,49 %
09.05.2016 01:38 17,2 C 16,7 C 15,0 C 64 % 0 lf 1011,7 hPa 0,0 l/m 0 min 0 min 0 W/m 12,6 km/h (3 Bft) 91,49 %
09.05.2016 01:40 17,2 C 16,7 C 15,0 C 64 % 0 lf 1011,7 hPa 0,0 l/m 0 min 0 min 0 W/m 14,6 km/h (3 Bft) 91,30 %
09.05.2016 01:42 17,1 C 16,7 C 15,0 C 64 % 0 lf 1011,7 hPa 0,0 l/m 0 min 0 min 0 W/m 12,6 km/h (3 Bft) 87,23 %
09.05.2016 01:44 17,1 C 16,7 C 15,0 C 64 % 0 lf 1011,6 hPa 0,0 l/m 0 min 0 min 0 W/m 12,6 km/h (3 Bft) 93,62 %
09.05.2016 01:46 17,1 C 16,7 C 15,0 C 64 % 0 lf 1011,7 hPa 0,0 l/m 0 min 0 min 0 W/m 14,6 km/h (3 Bft) 93,62 %
09.05.2016 01:48 17,0 C 16,7 C 14,4 C 65 % 0 lf 1011,6 hPa 0,0 l/m 0 min 0 min 0 W/m 12,6 km/h (3 Bft) 95,74 %
09.05.2016 01:50 17,0 C 16,7 C 14,4 C 65 % 0 lf 1011,6 hPa 0,0 l/m 0 min 0 min 0 W/m 16,7 km/h (3 Bft) 97,87 %
09.05.2016 01:52 16,9 C 16,7 C 14,4 C 65 % 0 lf 1011,6 hPa 0,0 l/m 0 min 0 min 0 W/m 14,6 km/h (3 Bft) 95,65 %
09.05.2016 01:54 16,9 C 16,1 C 14,4 C 65 % 0 lf 1011,7 hPa 0,0 l/m 0 min 0 min 0 W/m 14,6 km/h (3 Bft) 97,87 %
09.05.2016 01:56 16,9 C 16,1 C 14,4 C 65 % 0 lf 1011,6 hPa 0,0 l/m 0 min 0 min 0 W/m 14,6 km/h (3 Bft) 97,87 %
09.05.2016 01:58 16,9 C 16,1 C 14,4 C 65 % 0 lf 1011,6 hPa 0,0 l/m 0 min 0 min 0 W/m 14,6 km/h (3 Bft) 91,49 %
09.05.2016 02:00 16,8 C 16,1 C 14,4 C 65 % 0 lf 1011,6 hPa 0,0 l/m 0 min 0 min 0 W/m 6,3 km/h (2 Bft) 95,74 %
09.05.2016 02:02 16,8 C 16,1 C 14,4 C 65 % 0 lf 1011,6 hPa 0,0 l/m 0 min 0 min 0 W/m 6,3 km/h (2 Bft) 89,36 %
09.05.2016 02:04 16,8 C 16,1 C 14,4 C 65 % 0 lf 1011,6 hPa 0,0 l/m 0 min 0 min 0 W/m 14,6 km/h (3 Bft) 95,65 %
09.05.2016 02:06 16,8 C 16,1 C 14,4 C 65 % 0 lf 1011,6 hPa 0,0 l/m 0 min 0 min 0 W/m 10,5 km/h (2 Bft) 97,87 %
09.05.2016 02:08 16,7 C 16,1 C 14,4 C 65 % 0 lf 1011,6 hPa 0,0 l/m 0 min 0 min 0 W/m 4,2 km/h (1 Bft) 97,87 %
09.05.2016 02:10 16,7 C 16,1 C 13,9 C 65 % 0 lf 1011,6 hPa 0,0 l/m 0 min 0 min 0 W/m 10,5 km/h (2 Bft) 95,74 %
09.05.2016 02:12 16,7 C 15,6 C 13,9 C 65 % 0 lf 1011,6 hPa 0,0 l/m 0 min 0 min 0 W/m 6,3 km/h (2 Bft) 93,62 %
09.05.2016 02:14 16,7 C 15,6 C 13,9 C 65 % 0 lf 1011,6 hPa 0,0 l/m 0 min 0 min 0 W/m 8,4 km/h (2 Bft) 97,87 %
09.05.2016 02:16 16,6 C 15,6 C 13,9 C 65 % 0 lf 1011,6 hPa 0,0 l/m 0 min 0 min 0 W/m 6,3 km/h (2 Bft) 95,65 %
09.05.2016 02:18 16,6 C 15,6 C 13,3 C 65 % 0 lf 1011,6 hPa 0,0 l/m 0 min 0 min 0 W/m 6,3 km/h (2 Bft) 100,00 %
09.05.2016 02:20 16,6 C 15,6 C 13,3 C 65 % 0 lf 1011,6 hPa 0,0 l/m 0 min 0 min 0 W/m 6,3 km/h (2 Bft) 100,00 %
09.05.2016 02:22 16,6 C 15,6 C 13,3 C 65 % 0 lf 1011,6 hPa 0,0 l/m 0 min 0 min 0 W/m 4,2 km/h (1 Bft) 100,00 %
09.05.2016 02:24 16,5 C 15,0 C 13,3 C 65 % 0 lf 1011,6 hPa 0,0 l/m 0 min 0 min 0 W/m 4,2 km/h (1 Bft) 97,87 %
09.05.2016 02:26 16,4 C 14,4 C 12,8 C 65 % 0 lf 1011,6 hPa 0,0 l/m 0 min 0 min 0 W/m 6,3 km/h (2 Bft) 100,00 %
09.05.2016 02:28 16,4 C 14,4 C 12,8 C 65 % 0 lf 1011,6 hPa 0,0 l/m 0 min 0 min 0 W/m 6,3 km/h (2 Bft) 100,00 %
09.05.2016 02:30 16,4 C 14,4 C 12,8 C 66 % 0 lf 1011,6 hPa 0,0 l/m 0 min 0 min 0 W/m 2,1 km/h (1 Bft) 100,00 %
09.05.2016 02:32 16,3 C 14,4 C 12,8 C 66 % 0 lf 1011,6 hPa 0,0 l/m 0 min 0 min 0 W/m 4,2 km/h (1 Bft) 97,87 %
09.05.2016 02:34 16,3 C 13,9 C 12,2 C 66 % 0 lf 1011,7 hPa 0,0 l/m 0 min 0 min 0 W/m 4,2 km/h (1 Bft) 100,00 %
09.05.2016 02:36 16,2 C 13,9 C 12,2 C 66 % 0 lf 1011,6 hPa 0,0 l/m 0 min 0 min 0 W/m 6,3 km/h (2 Bft) 97,87 %
09.05.2016 02:38 16,2 C 13,9 C 12,2 C 66 % 0 lf 1011,6 hPa 0,0 l/m 0 min 0 min 0 W/m 4,2 km/h (1 Bft) 100,00 %
09.05.2016 02:40 16,1 C 13,9 C 12,2 C 66 % 0 lf 1011,7 hPa 0,0 l/m 0 min 0 min 0 W/m 4,2 km/h (1 Bft) 100,00 %
09.05.2016 02:42 16,1 C 13,9 C 12,2 C 66 % 0 lf 1011,7 hPa 0,0 l/m 0 min 0 min 0 W/m 6,3 km/h (2 Bft) 100,00 %
09.05.2016 02:44 16,0 C 13,9 C 12,2 C 66 % 0 lf 1011,6 hPa 0,0 l/m 0 min 0 min 0 W/m 4,2 km/h (1 Bft) 100,00 %
09.05.2016 02:46 15,9 C 13,9 C 12,2 C 67 % 0 lf 1011,7 hPa 0,0 l/m 0 min 0 min 0 W/m 4,2 km/h (1 Bft) 95,74 %
09.05.2016 02:48 15,9 C 13,9 C 12,2 C 67 % 0 lf 1011,7 hPa 0,0 l/m 0 min 0 min 0 W/m 8,4 km/h (2 Bft) 95,74 %
09.05.2016 02:50 15,8 C 13,9 C 12,2 C 67 % 0 lf 1011,7 hPa 0,0 l/m 0 min 0 min 0 W/m 6,3 km/h (2 Bft) 97,83 %
09.05.2016 02:52 15,8 C 13,9 C 12,2 C 67 % 0 lf 1011,7 hPa 0,0 l/m 0 min 0 min 0 W/m 6,3 km/h (2 Bft) 97,87 %
09.05.2016 02:54 15,7 C 13,9 C 12,2 C 67 % 0 lf 1011,7 hPa 0,0 l/m 0 min 0 min 0 W/m 4,2 km/h (1 Bft) 97,87 %
09.05.2016 02:56 15,7 C 13,9 C 12,2 C 67 % 0 lf 1011,7 hPa 0,0 l/m 0 min 0 min 0 W/m 4,2 km/h (1 Bft) 97,87 %
09.05.2016 02:58 15,6 C 13,9 C 12,2 C 68 % 0 lf 1011,8 hPa 0,0 l/m 0 min 0 min 0 W/m 6,3 km/h (2 Bft) 100,00 %
09.05.2016 03:00 15,5 C 13,9 C 12,2 C 68 % 0 lf 1011,8 hPa 0,0 l/m 0 min 0 min 0 W/m 6,3 km/h (2 Bft) 100,00 %
09.05.2016 03:02 15,4 C 13,9 C 11,7 C 68 % 0 lf 1011,8 hPa 0,0 l/m 0 min 0 min 0 W/m 6,3 km/h (2 Bft) 100,00 %
09.05.2016 03:04 15,4 C 13,9 C 11,7 C 68 % 0 lf 1011,8 hPa 0,0 l/m 0 min 0 min 0 W/m 6,3 km/h (2 Bft) 97,87 %
09.05.2016 03:06 15,4 C 13,9 C 11,7 C 68 % 0 lf 1011,8 hPa 0,0 l/m 0 min 0 min 0 W/m 6,3 km/h (2 Bft) 97,87 %
09.05.2016 03:08 15,3 C 13,9 C 11,7 C 68 % 0 lf 1011,7 hPa 0,0 l/m 0 min 0 min 0 W/m 4,2 km/h (1 Bft) 95,74 %
09.05.2016 03:10 15,3 C 13,9 C 11,7 C 68 % 0 lf 1011,7 hPa 0,0 l/m 0 min 0 min 0 W/m 4,2 km/h (1 Bft) 97,87 %
09.05.2016 03:12 15,2 C 13,3 C 11,7 C 68 % 0 lf 1011,7 hPa 0,0 l/m 0 min 0 min 0 W/m 4,2 km/h (1 Bft) 95,74 %
09.05.2016 03:14 15,2 C 13,3 C 11,7 C 69 % 0 lf 1011,8 hPa 0,0 l/m 0 min 0 min 0 W/m 4,2 km/h (1 Bft) 97,83 %
09.05.2016 03:16 15,1 C 13,3 C 11,7 C 69 % 0 lf 1011,7 hPa 0,0 l/m 0 min 0 min 0 W/m 2,1 km/h (1 Bft) 97,83 %
09.05.2016 03:18 15,1 C 13,3 C 11,7 C 69 % 0 lf 1011,7 hPa 0,0 l/m 0 min 0 min 0 W/m 4,2 km/h (1 Bft) 93,62 %
09.05.2016 03:20 15,0 C 12,8 C 11,7 C 69 % 0 lf 1011,7 hPa 0,0 l/m 0 min 0 min 0 W/m 4,2 km/h (1 Bft) 93,62 %
09.05.2016 03:22 14,9 C 12,8 C 11,7 C 69 % 0 lf 1011,8 hPa 0,0 l/m 0 min 0 min 0 W/m 2,1 km/h (1 Bft) 95,74 %
09.05.2016 03:24 14,9 C 12,8 C 11,7 C 69 % 0 lf 1011,7 hPa 0,0 l/m 0 min 0 min 0 W/m 0,0 km/h (0 Bft) 93,62 %
09.05.2016 03:26 14,8 C 12,8 C 11,1 C 69 % 0 lf 1011,7 hPa 0,0 l/m 0 min 0 min 0 W/m 2,1 km/h (1 Bft) 95,65 %
09.05.2016 03:28 14,8 C 12,8 C 11,1 C 69 % 0 lf 1011,8 hPa 0,0 l/m 0 min 0 min 0 W/m 0,0 km/h (0 Bft) 93,62 %
09.05.2016 03:30 14,7 C 12,2 C 11,1 C 69 % 0 lf 1011,8 hPa 0,0 l/m 0 min 0 min 0 W/m 0,0 km/h (0 Bft) 93,62 %
09.05.2016 03:32 14,7 C 12,2 C 11,1 C 69 % 0 lf 1011,8 hPa 0,0 l/m 0 min 0 min 0 W/m 4,2 km/h (1 Bft) 91,49 %
09.05.2016 03:34 14,6 C 12,2 C 11,1 C 70 % 0 lf 1011,8 hPa 0,0 l/m 0 min 0 min 0 W/m 4,2 km/h (1 Bft) 95,74 %
09.05.2016 03:36 14,6 C 12,2 C 11,1 C 70 % 0 lf 1011,8 hPa 0,0 l/m 0 min 0 min 0 W/m 4,2 km/h (1 Bft) 95,74 %
09.05.2016 03:38 14,5 C 12,2 C 11,1 C 70 % 0 lf 1011,9 hPa 0,0 l/m 0 min 0 min 0 W/m 2,1 km/h (1 Bft) 95,65 %
09.05.2016 03:40 14,4 C 12,2 C 11,1 C 70 % 0 lf 1011,8 hPa 0,0 l/m 0 min 0 min 0 W/m 4,2 km/h (1 Bft) 91,49 %
09.05.2016 03:42 14,3 C 12,2 C 11,1 C 70 % 0 lf 1011,8 hPa 0,0 l/m 0 min 0 min 0 W/m 4,2 km/h (1 Bft) 95,74 %
09.05.2016 03:44 14,3 C 11,7 C 11,1 C 70 % 0 lf 1011,7 hPa 0,0 l/m 0 min 0 min 0 W/m 2,1 km/h (1 Bft) 97,87 %
09.05.2016 03:46 14,2 C 11,7 C 10,6 C 71 % 0 lf 1011,8 hPa 0,0 l/m 0 min 0 min 0 W/m 2,1 km/h (1 Bft) 97,87 %
09.05.2016 03:48 14,2 C 11,7 C 10,6 C 71 % 0 lf 1011,8 hPa 0,0 l/m 0 min 0 min 0 W/m 2,1 km/h (1 Bft) 97,87 %
09.05.2016 03:50 14,2 C 11,7 C 10,6 C 71 % 0 lf 1011,9 hPa 0,0 l/m 0 min 0 min 0 W/m 4,2 km/h (1 Bft) 97,83 %
09.05.2016 03:52 14,2 C 11,7 C 10,6 C 71 % 0 lf 1011,9 hPa 0,0 l/m 0 min 0 min 0 W/m 2,1 km/h (1 Bft) 93,62 %
09.05.2016 03:54 14,1 C 11,7 C 10,6 C 71 % 0 lf 1011,9 hPa 0,0 l/m 0 min 0 min 0 W/m 2,1 km/h (1 Bft) 97,87 %
09.05.2016 03:56 14,0 C 11,7 C 10,6 C 71 % 0 lf 1011,9 hPa 0,0 l/m 0 min 0 min 0 W/m 4,2 km/h (1 Bft) 95,74 %
09.05.2016 03:58 13,9 C 11,7 C 10,6 C 72 % 0 lf 1011,9 hPa 0,0 l/m 0 min 0 min 0 W/m 4,2 km/h (1 Bft) 97,87 %
09.05.2016 04:00 13,9 C 11,7 C 10,6 C 72 % 0 lf 1011,9 hPa 0,0 l/m 0 min 0 min 0 W/m 4,2 km/h (1 Bft) 97,87 %
09.05.2016 04:02 13,8 C 11,7 C 10,6 C 72 % 0 lf 1012,0 hPa 0,0 l/m 0 min 0 min 0 W/m 4,2 km/h (1 Bft) 100,00 %
09.05.2016 04:07 13,7 C 11,7 C 10,6 C 72 % 0 lf 1011,9 hPa 0,0 l/m 0 min 0 min 0 W/m 4,2 km/h (1 Bft) 100,00 %
09.05.2016 04:08 13,7 C 12,2 C 10,6 C 72 % 0 lf 1011,9 hPa 0,0 l/m 0 min 0 min 0 W/m 4,2 km/h (1 Bft) 100,00 %
09.05.2016 04:10 13,6 C 12,2 C 10,6 C 72 % 0 lf 1011,9 hPa 0,0 l/m 0 min 0 min 0 W/m 6,3 km/h (2 Bft) 100,00 %
09.05.2016 04:12 13,6 C 12,2 C 10,6 C 73 % 0 lf 1011,9 hPa 0,0 l/m 0 min 0 min 0 W/m 6,3 km/h (2 Bft) 100,00 %
09.05.2016 04:14 13,5 C 12,2 C 10,6 C 73 % 0 lf 1011,9 hPa 0,0 l/m 0 min 0 min 0 W/m 8,4 km/h (2 Bft) 100,00 %
09.05.2016 04:16 13,4 C 12,8 C 10,6 C 74 % 0 lf 1012,0 hPa 0,0 l/m 0 min 0 min 0 W/m 4,2 km/h (1 Bft) 100,00 %
09.05.2016 04:18 13,4 C 12,2 C 10,6 C 74 % 0 lf 1011,9 hPa 0,0 l/m 0 min 0 min 0 W/m 6,3 km/h (2 Bft) 100,00 %
09.05.2016 04:20 13,4 C 12,8 C 10,6 C 74 % 0 lf 1011,9 hPa 0,0 l/m 0 min 0 min 0 W/m 4,2 km/h (1 Bft) 97,87 %
09.05.2016 04:22 13,3 C 12,8 C 10,6 C 74 % 0 lf 1011,9 hPa 0,0 l/m 0 min 0 min 0 W/m 4,2 km/h (1 Bft) 93,62 %
09.05.2016 04:24 13,3 C 12,8 C 10,6 C 74 % 0 lf 1011,9 hPa 0,0 l/m 0 min 0 min 0 W/m 4,2 km/h (1 Bft) 95,65 %
09.05.2016 04:26 13,2 C 12,2 C 10,6 C 74 % 0 lf 1012,0 hPa 0,0 l/m 0 min 0 min 0 W/m 4,2 km/h (1 Bft) 97,87 %
09.05.2016 04:28 13,2 C 12,2 C 10,6 C 74 % 0 lf 1011,9 hPa 0,0 l/m 0 min 0 min 0 W/m 4,2 km/h (1 Bft) 97,87 %
09.05.2016 04:30 13,2 C 12,2 C 10,6 C 75 % 0 lf 1011,9 hPa 0,0 l/m 0 min 0 min 0 W/m 4,2 km/h (1 Bft) 97,87 %
09.05.2016 04:32 13,1 C 12,2 C 10,6 C 75 % 0 lf 1011,9 hPa 0,0 l/m 0 min 0 min 0 W/m 2,1 km/h (1 Bft) 97,87 %
09.05.2016 04:34 13,1 C 12,2 C 10,6 C 75 % 0 lf 1011,8 hPa 0,0 l/m 0 min 0 min 0 W/m 4,2 km/h (1 Bft) 95,74 %
09.05.2016 04:36 13,1 C 12,2 C 10,6 C 75 % 0 lf 1011,9 hPa 0,0 l/m 0 min 0 min 0 W/m 4,2 km/h (1 Bft) 95,65 %
09.05.2016 04:38 13,0 C 12,2 C 10,6 C 75 % 0 lf 1011,9 hPa 0,0 l/m 0 min 0 min 0 W/m 2,1 km/h (1 Bft) 97,87 %
09.05.2016 04:40 13,0 C 12,2 C 10,6 C 75 % 0 lf 1011,9 hPa 0,0 l/m 0 min 0 min 0 W/m 4,2 km/h (1 Bft) 93,62 %
09.05.2016 04:42 13,0 C 12,2 C 10,6 C 75 % 0 lf 1011,9 hPa 0,0 l/m 0 min 0 min 0 W/m 4,2 km/h (1 Bft) 95,74 %
09.05.2016 04:44 12,9 C 11,7 C 10,6 C 75 % 0 lf 1011,9 hPa 0,0 l/m 0 min 0 min 0 W/m 2,1 km/h (1 Bft) 95,74 %
09.05.2016 04:46 12,9 C 11,7 C 10,6 C 76 % 0 lf 1011,9 hPa 0,0 l/m 0 min 0 min 0 W/m 6,3 km/h (2 Bft) 93,62 %
09.05.2016 04:48 12,9 C 12,2 C 10,6 C 76 % 0 lf 1011,9 hPa 0,0 l/m 0 min 0 min 0 W/m 4,2 km/h (1 Bft) 93,48 %
09.05.2016 04:50 12,9 C 12,2 C 10,0 C 76 % 0 lf 1011,9 hPa 0,0 l/m 0 min 0 min 0 W/m 6,3 km/h (2 Bft) 93,62 %
09.05.2016 04:52 12,8 C 11,7 C 10,6 C 76 % 0 lf 1011,8 hPa 0,0 l/m 0 min 0 min 0 W/m 4,2 km/h (1 Bft) 95,74 %
09.05.2016 04:54 12,8 C 12,2 C 10,0 C 76 % 0 lf 1011,9 hPa 0,0 l/m 0 min 0 min 0 W/m 4,2 km/h (1 Bft) 91,49 %
09.05.2016 04:56 12,8 C 12,2 C 10,0 C 76 % 0 lf 1011,9 hPa 0,0 l/m 0 min 0 min 0 W/m 4,2 km/h (1 Bft) 93,62 %
09.05.2016 04:58 12,8 C 11,7 C 10,0 C 77 % 0 lf 1011,9 hPa 0,0 l/m 0 min 0 min 0 W/m 4,2 km/h (1 Bft) 95,65 %
09.05.2016 05:00 12,7 C 11,7 C 10,0 C 77 % 0 lf 1011,9 hPa 0,0 l/m 0 min 0 min 0 W/m 4,2 km/h (1 Bft) 93,62 %
09.05.2016 05:02 12,7 C 11,7 C 10,0 C 77 % 0 lf 1011,9 hPa 0,0 l/m 0 min 0 min 0 W/m 4,2 km/h (1 Bft) 93,62 %
09.05.2016 05:04 12,7 C 11,7 C 10,0 C 77 % 0 lf 1011,8 hPa 0,0 l/m 0 min 0 min 0 W/m 4,2 km/h (1 Bft) 93,62 %
09.05.2016 05:06 12,7 C 11,7 C 10,0 C 77 % 0 lf 1011,8 hPa 0,0 l/m 0 min 0 min 0 W/m 6,3 km/h (2 Bft) 93,62 %
09.05.2016 05:08 12,7 C 11,7 C 10,0 C 77 % 0 lf 1011,8 hPa 0,0 l/m 0 min 0 min 0 W/m 4,2 km/h (1 Bft) 91,49 %
09.05.2016 05:10 12,6 C 11,7 C 10,0 C 77 % 0 lf 1011,9 hPa 0,0 l/m 0 min 0 min 0 W/m 4,2 km/h (1 Bft) 91,30 %
09.05.2016 05:12 12,6 C 11,7 C 10,0 C 77 % 0 lf 1011,8 hPa 0,0 l/m 0 min 0 min 0 W/m 4,2 km/h (1 Bft) 91,49 %
09.05.2016 05:14 12,6 C 11,7 C 10,0 C 77 % 0 lf 1011,9 hPa 0,0 l/m 0 min 0 min 0 W/m 4,2 km/h (1 Bft) 95,74 %
09.05.2016 05:16 12,6 C 11,7 C 10,0 C 77 % 0 lf 1011,9 hPa 0,0 l/m 0 min 0 min 0 W/m 4,2 km/h (1 Bft) 95,74 %
09.05.2016 05:18 12,5 C 11,7 C 10,0 C 77 % 0 lf 1011,8 hPa 0,0 l/m 0 min 0 min 0 W/m 4,2 km/h (1 Bft) 93,62 %
09.05.2016 05:20 12,5 C 11,7 C 10,0 C 77 % 0 lf 1011,8 hPa 0,0 l/m 0 min 0 min 0 W/m 2,1 km/h (1 Bft) 95,74 %
09.05.2016 05:22 12,5 C 11,7 C 10,0 C 77 % 0 lf 1011,9 hPa 0,0 l/m 0 min 0 min 0 W/m 2,1 km/h (1 Bft) 93,48 %
09.05.2016 05:24 12,4 C 11,1 C 10,0 C 77 % 0 lf 1011,9 hPa 0,0 l/m 0 min 0 min 0 W/m 4,2 km/h (1 Bft) 95,74 %
09.05.2016 05:26 12,4 C 11,1 C 10,0 C 77 % 0 lf 1011,9 hPa 0,0 l/m 0 min 0 min 0 W/m 2,1 km/h (1 Bft) 95,74 %
09.05.2016 05:28 12,4 C 11,1 C 10,0 C 77 % 0 lf 1011,8 hPa 0,0 l/m 0 min 0 min 0 W/m 2,1 km/h (1 Bft) 95,74 %
09.05.2016 05:30 12,4 C 11,1 C 10,0 C 77 % 0 lf 1011,8 hPa 0,0 l/m 0 min 0 min 0 W/m 4,2 km/h (1 Bft) 95,74 %
09.05.2016 05:32 12,3 C 10,6 C 10,0 C 77 % 0 lf 1011,9 hPa 0,0 l/m 0 min 0 min 0 W/m 2,1 km/h (1 Bft) 93,62 %
09.05.2016 05:34 12,3 C 10,6 C 10,0 C 77 % 0 lf 1011,8 hPa 0,0 l/m 0 min 0 min 0 W/m 2,1 km/h (1 Bft) 95,65 %
09.05.2016 05:36 12,3 C 10,6 C 10,0 C 77 % 0 lf 1011,9 hPa 0,0 l/m 0 min 0 min 0 W/m 2,1 km/h (1 Bft) 93,62 %
09.05.2016 05:38 12,3 C 11,1 C 9,4 C 78 % 0 lf 1011,9 hPa 0,0 l/m 0 min 0 min 0 W/m 2,1 km/h (1 Bft) 93,62 %
09.05.2016 05:40 12,3 C 10,6 C 9,4 C 78 % 0 lf 1011,8 hPa 0,0 l/m 0 min 0 min 0 W/m 4,2 km/h (1 Bft) 95,74 %
09.05.2016 05:42 12,2 C 10,6 C 9,4 C 78 % 0 lf 1011,9 hPa 0,0 l/m 0 min 0 min 0 W/m 4,2 km/h (1 Bft) 91,49 %
09.05.2016 05:44 12,2 C 10,6 C 9,4 C 77 % 0 lf 1011,8 hPa 0,0 l/m 0 min 0 min 2 W/m 4,2 km/h (1 Bft) 95,74 %
09.05.2016 05:46 12,2 C 10,6 C 9,4 C 78 % 0 lf 1011,9 hPa 0,0 l/m 0 min 0 min 5 W/m 4,2 km/h (1 Bft) 97,83 %
09.05.2016 05:48 12,2 C 10,6 C 9,4 C 78 % 0 lf 1011,8 hPa 0,0 l/m 0 min 0 min 5 W/m 4,2 km/h (1 Bft) 95,74 %
09.05.2016 05:50 12,1 C 10,6 C 9,4 C 78 % 0 lf 1011,9 hPa 0,0 l/m 0 min 0 min 5 W/m 2,1 km/h (1 Bft) 93,62 %
09.05.2016 05:52 12,1 C 10,6 C 9,4 C 78 % 0 lf 1011,8 hPa 0,0 l/m 0 min 0 min 7 W/m 4,2 km/h (1 Bft) 97,87 %
09.05.2016 05:54 12,1 C 10,6 C 9,4 C 78 % 0 lf 1011,9 hPa 0,0 l/m 0 min 0 min 7 W/m 4,2 km/h (1 Bft) 93,62 %
09.05.2016 05:56 12,1 C 10,6 C 9,4 C 78 % 0 lf 1011,9 hPa 0,0 l/m 0 min 0 min 9 W/m 6,3 km/h (2 Bft) 97,87 %
09.05.2016 05:58 12,0 C 11,1 C 9,4 C 78 % 0 lf 1012,0 hPa 0,0 l/m 0 min 0 min 9 W/m 6,3 km/h (2 Bft) 97,83 %
09.05.2016 06:00 12,0 C 11,1 C 9,4 C 78 % 0 lf 1011,9 hPa 0,0 l/m 0 min 0 min 10 W/m 4,2 km/h (1 Bft) 97,87 %
09.05.2016 06:02 11,9 C 11,1 C 9,4 C 78 % 0 lf 1011,9 hPa 0,0 l/m 0 min 0 min 11 W/m 4,2 km/h (1 Bft) 97,87 %
09.05.2016 06:04 11,9 C 11,1 C 9,4 C 78 % 0 lf 1011,9 hPa 0,0 l/m 0 min 0 min 12 W/m 4,2 km/h (1 Bft) 97,87 %
09.05.2016 06:06 11,9 C 11,1 C 9,4 C 79 % 0 lf 1011,9 hPa 0,0 l/m 0 min 0 min 13 W/m 4,2 km/h (1 Bft) 95,74 %
09.05.2016 06:08 11,9 C 11,1 C 9,4 C 79 % 0 lf 1011,9 hPa 0,0 l/m 0 min 0 min 14 W/m 4,2 km/h (1 Bft) 95,74 %
09.05.2016 06:10 11,8 C 11,1 C 9,4 C 79 % 0 lf 1011,9 hPa 0,0 l/m 0 min 0 min 16 W/m 4,2 km/h (1 Bft) 97,83 %
09.05.2016 06:12 11,8 C 11,1 C 9,4 C 79 % 0 lf 1011,9 hPa 0,0 l/m 0 min 0 min 17 W/m 4,2 km/h (1 Bft) 95,74 %
09.05.2016 06:14 11,8 C 11,1 C 9,4 C 79 % 0 lf 1012,0 hPa 0,0 l/m 0 min 0 min 18 W/m 4,2 km/h (1 Bft) 95,74 %
09.05.2016 06:16 11,8 C 11,1 C 9,4 C 79 % 0 lf 1012,0 hPa 0,0 l/m 0 min 0 min 21 W/m 4,2 km/h (1 Bft) 97,87 %
09.05.2016 06:18 11,8 C 11,7 C 9,4 C 80 % 0 lf 1012,0 hPa 0,0 l/m 0 min 0 min 23 W/m 4,2 km/h (1 Bft) 97,87 %
09.05.2016 06:20 11,7 C 11,7 C 9,4 C 80 % 0 lf 1012,0 hPa 0,0 l/m 2 min 0 min 26 W/m 6,3 km/h (2 Bft) 97,83 %
09.05.2016 06:22 11,7 C 11,7 C 10,0 C 80 % 0 lf 1012,0 hPa 0,0 l/m 2 min 0 min 29 W/m 6,3 km/h (2 Bft) 93,62 %
09.05.2016 06:24 11,7 C 11,7 C 10,0 C 80 % 0 lf 1012,0 hPa 0,0 l/m 2 min 0 min 32 W/m 6,3 km/h (2 Bft) 97,87 %
09.05.2016 06:26 11,7 C 11,7 C 10,0 C 80 % 0 lf 1012,1 hPa 0,0 l/m 2 min 0 min 36 W/m 4,2 km/h (1 Bft) 95,74 %
09.05.2016 06:28 11,7 C 11,7 C 10,0 C 81 % 0 lf 1012,0 hPa 0,0 l/m 2 min 0 min 38 W/m 2,1 km/h (1 Bft) 93,62 %
09.05.2016 06:30 11,7 C 11,7 C 10,0 C 81 % 0 lf 1012,1 hPa 0,0 l/m 2 min 0 min 42 W/m 2,1 km/h (1 Bft) 97,87 %
09.05.2016 06:32 11,7 C 11,7 C 10,0 C 81 % 0 lf 1012,1 hPa 0,0 l/m 2 min 0 min 46 W/m 2,1 km/h (1 Bft) 95,65 %
09.05.2016 06:34 11,7 C 11,7 C 10,0 C 81 % 0 lf 1012,1 hPa 0,0 l/m 2 min 0 min 49 W/m 2,1 km/h (1 Bft) 95,74 %
09.05.2016 06:36 11,6 C 11,7 C 10,0 C 81 % 0 lf 1012,1 hPa 0,0 l/m 2 min 0 min 53 W/m 4,2 km/h (1 Bft) 97,87 %
09.05.2016 06:38 11,6 C 11,7 C 10,0 C 81 % 0 lf 1012,1 hPa 0,0 l/m 2 min 0 min 58 W/m 2,1 km/h (1 Bft) 95,74 %
09.05.2016 06:40 11,6 C 12,2 C 10,0 C 81 % 0 lf 1012,2 hPa 0,0 l/m 2 min 0 min 63 W/m 4,2 km/h (1 Bft) 95,74 %
09.05.2016 06:42 11,6 C 11,7 C 10,0 C 82 % 0 lf 1012,1 hPa 0,0 l/m 2 min 0 min 67 W/m 4,2 km/h (1 Bft) 100,00 %
09.05.2016 06:44 11,6 C 12,2 C 10,0 C 82 % 0 lf 1012,1 hPa 0,0 l/m 2 min 0 min 71 W/m 4,2 km/h (1 Bft) 97,83 %
09.05.2016 06:46 11,6 C 12,2 C 10,0 C 82 % 0 lf 1012,2 hPa 0,0 l/m 2 min 0 min 77 W/m 2,1 km/h (1 Bft) 97,87 %
09.05.2016 06:48 11,6 C 12,2 C 10,0 C 82 % 0 lf 1012,2 hPa 0,0 l/m 2 min 0 min 82 W/m 2,1 km/h (1 Bft) 100,00 %
09.05.2016 06:50 11,6 C 12,2 C 10,0 C 82 % 0 lf 1012,2 hPa 0,0 l/m 2 min 0 min 87 W/m 2,1 km/h (1 Bft) 95,74 %
09.05.2016 06:52 11,6 C 12,2 C 10,0 C 82 % 0 lf 1012,2 hPa 0,0 l/m 2 min 0 min 92 W/m 4,2 km/h (1 Bft) 100,00 %
09.05.2016 06:54 11,6 C 12,2 C 10,0 C 82 % 0 lf 1012,2 hPa 0,0 l/m 2 min 0 min 98 W/m 4,2 km/h (1 Bft) 95,74 %
09.05.2016 06:56 11,7 C 12,8 C 10,6 C 82 % 0 lf 1012,2 hPa 0,0 l/m 2 min 0 min 104 W/m 6,3 km/h (2 Bft) 97,83 %
09.05.2016 06:58 11,7 C 12,8 C 10,6 C 83 % 0 lf 1012,2 hPa 0,0 l/m 2 min 0 min 109 W/m 6,3 km/h (2 Bft) 95,74 %
09.05.2016 07:00 11,7 C 13,3 C 10,6 C 83 % 0 lf 1012,2 hPa 0,0 l/m 2 min 0 min 115 W/m 6,3 km/h (2 Bft) 97,87 %
09.05.2016 07:02 11,7 C 12,8 C 10,6 C 83 % 0 lf 1012,2 hPa 0,0 l/m 2 min 0 min 121 W/m 4,2 km/h (1 Bft) 95,74 %
09.05.2016 07:04 11,7 C 13,3 C 10,6 C 83 % 0 lf 1012,2 hPa 0,0 l/m 2 min 0 min 127 W/m 4,2 km/h (1 Bft) 93,62 %
09.05.2016 07:06 11,7 C 13,9 C 11,1 C 83 % 0 lf 1012,3 hPa 0,0 l/m 2 min 0 min 132 W/m 10,5 km/h (2 Bft) 97,87 %
09.05.2016 07:08 11,8 C 13,9 C 11,1 C 83 % 0 lf 1012,3 hPa 0,0 l/m 2 min 0 min 139 W/m 6,3 km/h (2 Bft) 97,83 %
09.05.2016 07:10 11,8 C 13,9 C 11,1 C 83 % 0 lf 1012,2 hPa 0,0 l/m 2 min 0 min 144 W/m 8,4 km/h (2 Bft) 93,62 %
09.05.2016 07:12 11,9 C 13,9 C 11,1 C 83 % 0 lf 1012,2 hPa 0,0 l/m 2 min 0 min 150 W/m 6,3 km/h (2 Bft) 95,74 %
09.05.2016 07:14 11,9 C 14,4 C 11,7 C 83 % 0 lf 1012,2 hPa 0,0 l/m 2 min 0 min 157 W/m 6,3 km/h (2 Bft) 97,87 %
09.05.2016 07:16 12,0 C 14,4 C 11,7 C 83 % 0 lf 1012,2 hPa 0,0 l/m 2 min 0 min 163 W/m 6,3 km/h (2 Bft) 97,87 %
09.05.2016 07:18 12,1 C 14,4 C 11,7 C 83 % 0 lf 1012,2 hPa 0,0 l/m 2 min 0 min 168 W/m 10,5 km/h (2 Bft) 95,74 %
09.05.2016 07:20 12,2 C 14,4 C 11,7 C 83 % 0 lf 1012,2 hPa 0,0 l/m 2 min 0 min 175 W/m 12,6 km/h (3 Bft) 97,83 %
09.05.2016 07:22 12,3 C 14,4 C 12,2 C 82 % 0 lf 1012,2 hPa 0,0 l/m 2 min 0 min 181 W/m 12,6 km/h (3 Bft) 97,87 %
09.05.2016 07:24 12,3 C 14,4 C 12,2 C 82 % 0 lf 1012,2 hPa 0,0 l/m 2 min 0 min 187 W/m 10,5 km/h (2 Bft) 95,74 %
09.05.2016 07:26 12,4 C 14,4 C 12,2 C 82 % 0 lf 1012,2 hPa 0,0 l/m 2 min 0 min 194 W/m 10,5 km/h (2 Bft) 93,62 %
09.05.2016 07:28 12,5 C 14,4 C 12,2 C 82 % 0 lf 1012,2 hPa 0,0 l/m 2 min 0 min 200 W/m 14,6 km/h (3 Bft) 95,74 %
09.05.2016 07:30 12,6 C 14,4 C 12,2 C 82 % 0 lf 1012,2 hPa 0,0 l/m 2 min 0 min 205 W/m 12,6 km/h (3 Bft) 95,74 %
09.05.2016 07:32 12,7 C 14,4 C 12,2 C 82 % 0 lf 1012,2 hPa 0,0 l/m 2 min 0 min 211 W/m 16,7 km/h (3 Bft) 95,65 %
09.05.2016 07:34 12,8 C 15,0 C 12,2 C 81 % 0 lf 1012,2 hPa 0,0 l/m 2 min 0 min 218 W/m 14,6 km/h (3 Bft) 95,74 %
09.05.2016 07:36 12,9 C 15,0 C 12,2 C 81 % 0 lf 1012,2 hPa 0,0 l/m 2 min 0 min 223 W/m 14,6 km/h (3 Bft) 95,74 %
09.05.2016 07:38 12,9 C 15,0 C 12,8 C 81 % 0 lf 1012,2 hPa 0,0 l/m 2 min 0 min 230 W/m 10,5 km/h (2 Bft) 95,74 %
09.05.2016 07:40 13,1 C 15,0 C 12,8 C 81 % 0 lf 1012,2 hPa 0,0 l/m 2 min 0 min 234 W/m 12,6 km/h (3 Bft) 93,62 %
09.05.2016 07:42 13,2 C 15,0 C 12,8 C 80 % 0 lf 1012,2 hPa 0,0 l/m 2 min 0 min 240 W/m 10,5 km/h (2 Bft) 97,87 %
09.05.2016 07:44 13,3 C 15,6 C 12,8 C 80 % 0 lf 1012,2 hPa 0,0 l/m 2 min 0 min 244 W/m 10,5 km/h (2 Bft) 95,65 %
09.05.2016 07:46 13,4 C 15,6 C 13,3 C 80 % 0 lf 1012,2 hPa 0,0 l/m 2 min 0 min 251 W/m 10,5 km/h (2 Bft) 97,87 %
09.05.2016 07:48 13,4 C 15,6 C 13,3 C 79 % 0 lf 1012,2 hPa 0,0 l/m 2 min 0 min 257 W/m 10,5 km/h (2 Bft) 97,87 %
09.05.2016 07:50 13,6 C 15,6 C 13,3 C 79 % 0 lf 1012,1 hPa 0,0 l/m 2 min 0 min 263 W/m 10,5 km/h (2 Bft) 93,62 %
09.05.2016 07:52 13,7 C 15,6 C 13,3 C 79 % 0 lf 1012,2 hPa 0,0 l/m 2 min 0 min 269 W/m 8,4 km/h (2 Bft) 97,87 %
09.05.2016 07:54 13,7 C 15,6 C 13,3 C 79 % 0 lf 1012,2 hPa 0,0 l/m 2 min 0 min 275 W/m 10,5 km/h (2 Bft) 95,65 %
09.05.2016 07:56 13,8 C 16,1 C 13,3 C 79 % 0 lf 1012,2 hPa 0,0 l/m 2 min 0 min 281 W/m 6,3 km/h (2 Bft) 95,74 %
09.05.2016 07:58 13,9 C 16,1 C 13,3 C 79 % 0 lf 1012,2 hPa 0,0 l/m 2 min 0 min 286 W/m 6,3 km/h (2 Bft) 97,87 %
09.05.2016 08:00 14,1 C 16,1 C 13,9 C 78 % 0 lf 1012,2 hPa 0,0 l/m 2 min 0 min 292 W/m 12,6 km/h (3 Bft) 97,87 %
09.05.2016 08:02 14,2 C 16,1 C 13,9 C 78 % 0 lf 1012,2 hPa 0,0 l/m 2 min 0 min 297 W/m 10,5 km/h (2 Bft) 95,74 %
09.05.2016 08:04 14,2 C 16,7 C 13,9 C 78 % 0 lf 1012,2 hPa 0,0 l/m 2 min 0 min 303 W/m 10,5 km/h (2 Bft) 95,74 %
09.05.2016 08:06 14,3 C 16,7 C 13,9 C 77 % 0 lf 1012,2 hPa 0,0 l/m 2 min 0 min 309 W/m 12,6 km/h (3 Bft) 97,83 %
09.05.2016 08:08 14,5 C 16,7 C 14,4 C 77 % 0 lf 1012,3 hPa 0,0 l/m 2 min 0 min 315 W/m 14,6 km/h (3 Bft) 95,74 %
09.05.2016 08:10 14,6 C 16,7 C 14,4 C 76 % 0 lf 1012,3 hPa 0,0 l/m 2 min 0 min 321 W/m 14,6 km/h (3 Bft) 100,00 %
09.05.2016 08:12 14,7 C 17,2 C 14,4 C 76 % 0 lf 1012,3 hPa 0,0 l/m 2 min 0 min 326 W/m 10,5 km/h (2 Bft) 97,87 %
09.05.2016 08:14 14,9 C 17,2 C 15,0 C 76 % 0 lf 1012,2 hPa 0,0 l/m 2 min 0 min 332 W/m 12,6 km/h (3 Bft) 100,00 %
09.05.2016 08:16 15,0 C 17,2 C 15,0 C 75 % 0 lf 1012,3 hPa 0,0 l/m 2 min 0 min 338 W/m 8,4 km/h (2 Bft) 95,74 %
09.05.2016 08:18 15,1 C 17,2 C 14,4 C 75 % 0 lf 1012,3 hPa 0,0 l/m 2 min 0 min 344 W/m 10,5 km/h (2 Bft) 97,83 %
09.05.2016 08:20 15,2 C 17,2 C 15,0 C 75 % 0 lf 1012,3 hPa 0,0 l/m 2 min 0 min 351 W/m 12,6 km/h (3 Bft) 97,87 %
09.05.2016 08:22 15,4 C 17,8 C 15,0 C 74 % 0 lf 1012,3 hPa 0,0 l/m 2 min 0 min 357 W/m 18,8 km/h (3 Bft) 100,00 %
09.05.2016 08:24 15,6 C 17,8 C 15,6 C 73 % 0 lf 1012,3 hPa 0,0 l/m 2 min 0 min 363 W/m 16,7 km/h (3 Bft) 100,00 %
09.05.2016 08:26 15,7 C 18,3 C 15,6 C 73 % 0 lf 1012,3 hPa 0,0 l/m 2 min 0 min 369 W/m 14,6 km/h (3 Bft) 93,62 %
09.05.2016 08:28 15,8 C 18,3 C 15,6 C 73 % 0 lf 1012,3 hPa 0,0 l/m 2 min 0 min 375 W/m 18,8 km/h (3 Bft) 97,87 %
09.05.2016 08:30 16,0 C 20,6 C 15,6 C 72 % 0 lf 1012,2 hPa 0,0 l/m 2 min 0 min 382 W/m 16,7 km/h (3 Bft) 97,83 %
09.05.2016 08:32 16,1 C 22,8 C 15,6 C 71 % 0 lf 1012,2 hPa 0,0 l/m 2 min 0 min 388 W/m 14,6 km/h (3 Bft) 100,00 %
09.05.2016 08:34 16,3 C 23,3 C 16,1 C 71 % 0 lf 1012,3 hPa 0,0 l/m 2 min 0 min 393 W/m 16,7 km/h (3 Bft) 100,00 %
09.05.2016 08:36 16,5 C 23,9 C 16,1 C 70 % 0 lf 1012,3 hPa 0,0 l/m 2 min 0 min 398 W/m 20,9 km/h (4 Bft) 97,87 %
09.05.2016 08:38 16,7 C 23,9 C 16,1 C 69 % 0 lf 1012,3 hPa 0,0 l/m 2 min 0 min 405 W/m 18,8 km/h (3 Bft) 100,00 %
09.05.2016 08:40 16,9 C 22,8 C 16,1 C 68 % 0 lf 1012,3 hPa 0,0 l/m 2 min 0 min 411 W/m 18,8 km/h (3 Bft) 97,87 %
09.05.2016 08:42 17,1 C 21,1 C 16,1 C 67 % 0 lf 1012,4 hPa 0,0 l/m 2 min 0 min 416 W/m 27,2 km/h (4 Bft) 97,83 %
09.05.2016 08:44 17,3 C 20,0 C 16,1 C 66 % 0 lf 1012,4 hPa 0,0 l/m 2 min 0 min 422 W/m 27,2 km/h (4 Bft) 97,87 %
09.05.2016 08:46 17,4 C 19,4 C 16,1 C 65 % 0 lf 1012,4 hPa 0,0 l/m 2 min 0 min 427 W/m 29,3 km/h (5 Bft) 95,74 %
09.05.2016 08:48 17,6 C 20,0 C 16,7 C 65 % 0 lf 1012,3 hPa 0,0 l/m 2 min 0 min 435 W/m 23,0 km/h (4 Bft) 93,62 %
09.05.2016 08:50 17,7 C 20,0 C 16,7 C 64 % 0 lf 1012,3 hPa 0,0 l/m 2 min 0 min 440 W/m 25,1 km/h (4 Bft) 95,74 %
09.05.2016 08:52 17,9 C 20,0 C 16,7 C 64 % 0 lf 1012,3 hPa 0,0 l/m 2 min 0 min 445 W/m 35,6 km/h (5 Bft) 93,62 %
09.05.2016 08:54 18,1 C 20,6 C 16,7 C 63 % 0 lf 1012,3 hPa 0,0 l/m 2 min 0 min 452 W/m 27,2 km/h (4 Bft) 95,65 %
09.05.2016 08:56 18,2 C 21,7 C 17,2 C 63 % 0 lf 1012,3 hPa 0,0 l/m 2 min 0 min 457 W/m 16,7 km/h (3 Bft) 93,62 %
09.05.2016 08:58 18,3 C 22,2 C 17,2 C 62 % 0 lf 1012,3 hPa 0,0 l/m 2 min 0 min 463 W/m 23,0 km/h (4 Bft) 91,49 %
09.05.2016 09:00 18,4 C 22,2 C 17,2 C 63 % 0 lf 1012,3 hPa 0,0 l/m 2 min 0 min 469 W/m 20,9 km/h (4 Bft) 91,49 %
09.05.2016 09:02 18,6 C 23,3 C 17,2 C 62 % 0 lf 1012,4 hPa 0,0 l/m 2 min 0 min 474 W/m 27,2 km/h (4 Bft) 93,62 %
09.05.2016 09:04 18,7 C 25,0 C 17,2 C 62 % 0 lf 1012,4 hPa 0,0 l/m 2 min 0 min 479 W/m 29,3 km/h (5 Bft) 95,74 %
09.05.2016 09:06 18,8 C 25,0 C 17,2 C 61 % 0 lf 1012,4 hPa 0,0 l/m 2 min 0 min 485 W/m 20,9 km/h (4 Bft) 91,30 %
09.05.2016 09:08 18,9 C 25,6 C 17,8 C 61 % 0 lf 1012,4 hPa 0,0 l/m 2 min 0 min 490 W/m 25,1 km/h (4 Bft) 93,62 %
09.05.2016 09:10 19,1 C 25,0 C 17,8 C 61 % 0 lf 1012,4 hPa 0,0 l/m 2 min 0 min 497 W/m 27,2 km/h (4 Bft) 91,49 %
09.05.2016 09:12 19,2 C 26,1 C 17,8 C 61 % 0 lf 1012,4 hPa 0,0 l/m 2 min 0 min 502 W/m 20,9 km/h (4 Bft) 91,49 %
09.05.2016 09:14 19,3 C 27,2 C 17,8 C 61 % 0 lf 1012,5 hPa 0,0 l/m 2 min 0 min 508 W/m 23,0 km/h (4 Bft) 93,62 %
09.05.2016 09:16 19,5 C 27,2 C 17,8 C 60 % 0 lf 1012,4 hPa 0,0 l/m 2 min 0 min 514 W/m 27,2 km/h (4 Bft) 91,30 %
09.05.2016 09:18 19,6 C 26,1 C 18,3 C 59 % 0 lf 1012,4 hPa 0,0 l/m 2 min 0 min 519 W/m 23,0 km/h (4 Bft) 95,74 %
09.05.2016 09:20 19,8 C 26,1 C 18,3 C 59 % 0 lf 1012,4 hPa 0,0 l/m 2 min 0 min 525 W/m 25,1 km/h (4 Bft) 91,49 %
09.05.2016 09:22 19,9 C 26,1 C 18,3 C 58 % 0 lf 1012,4 hPa 0,0 l/m 2 min 0 min 530 W/m 25,1 km/h (4 Bft) 91,49 %
09.05.2016 09:24 20,1 C 26,1 C 18,3 C 58 % 0 lf 1012,3 hPa 0,0 l/m 2 min 0 min 537 W/m 29,3 km/h (5 Bft) 91,49 %
09.05.2016 09:26 20,2 C 26,1 C 18,3 C 57 % 0 lf 1012,3 hPa 0,0 l/m 2 min 0 min 542 W/m 23,0 km/h (4 Bft) 91,49 %
09.05.2016 09:28 20,3 C 27,2 C 18,3 C 57 % 0 lf 1012,3 hPa 0,0 l/m 2 min 0 min 548 W/m 16,7 km/h (3 Bft) 95,65 %
09.05.2016 09:30 20,4 C 26,7 C 18,9 C 57 % 0 lf 1012,3 hPa 0,0 l/m 2 min 0 min 554 W/m 29,3 km/h (5 Bft) 93,62 %
09.05.2016 09:32 20,6 C 27,2 C 18,9 C 57 % 0 lf 1012,3 hPa 0,0 l/m 2 min 0 min 559 W/m 31,4 km/h (5 Bft) 93,62 %
09.05.2016 09:34 20,7 C 26,1 C 19,4 C 56 % 0 lf 1012,3 hPa 0,0 l/m 2 min 0 min 564 W/m 31,4 km/h (5 Bft) 93,62 %
09.05.2016 09:36 20,8 C 26,1 C 19,4 C 55 % 0 lf 1012,3 hPa 0,0 l/m 2 min 0 min 570 W/m 20,9 km/h (4 Bft) 89,36 %
09.05.2016 09:38 20,9 C 25,6 C 20,0 C 55 % 0 lf 1012,2 hPa 0,0 l/m 2 min 0 min 575 W/m 33,5 km/h (5 Bft) 93,62 %
09.05.2016 09:40 20,9 C 26,1 C 20,6 C 55 % 0 lf 1012,2 hPa 0,0 l/m 2 min 0 min 581 W/m 31,4 km/h (5 Bft) 95,65 %
09.05.2016 09:42 21,0 C 26,7 C 20,6 C 55 % 0 lf 1012,1 hPa 0,0 l/m 2 min 0 min 586 W/m 25,1 km/h (4 Bft) 95,74 %
09.05.2016 09:44 21,1 C 27,2 C 21,1 C 54 % 0 lf 1012,1 hPa 0,0 l/m 2 min 0 min 594 W/m 37,7 km/h (5 Bft) 97,87 %
09.05.2016 09:46 21,2 C 27,8 C 22,8 C 55 % 0 lf 1012,1 hPa 0,0 l/m 2 min 0 min 598 W/m 25,1 km/h (4 Bft) 100,00 %
09.05.2016 09:48 21,3 C 27,2 C 23,3 C 54 % 0 lf 1012,1 hPa 0,0 l/m 2 min 0 min 604 W/m 29,3 km/h (5 Bft) 97,87 %
09.05.2016 09:50 21,3 C 27,8 C 23,3 C 54 % 0 lf 1012,1 hPa 0,0 l/m 2 min 0 min 608 W/m 27,2 km/h (4 Bft) 97,87 %
09.05.2016 09:52 21,4 C 26,7 C 23,3 C 53 % 0 lf 1012,1 hPa 0,0 l/m 2 min 0 min 613 W/m 31,4 km/h (5 Bft) 100,00 %
09.05.2016 09:54 21,5 C 27,2 C 23,9 C 54 % 0 lf 1012,1 hPa 0,0 l/m 2 min 0 min 618 W/m 29,3 km/h (5 Bft) 97,87 %
09.05.2016 09:56 21,6 C 28,3 C 25,0 C 55 % 0 lf 1012,1 hPa 0,0 l/m 2 min 0 min 623 W/m 20,9 km/h (4 Bft) 100,00 %
09.05.2016 09:58 21,7 C 28,9 C 25,6 C 55 % 0 lf 1012,1 hPa 0,0 l/m 2 min 0 min 628 W/m 23,0 km/h (4 Bft) 95,74 %
09.05.2016 10:00 21,8 C 29,4 C 25,0 C 54 % 0 lf 1012,1 hPa 0,0 l/m 2 min 0 min 633 W/m 20,9 km/h (4 Bft) 100,00 %
09.05.2016 10:02 21,9 C 28,9 C 25,6 C 55 % 0 lf 1012,1 hPa 0,0 l/m 2 min 0 min 638 W/m 18,8 km/h (3 Bft) 100,00 %
09.05.2016 10:04 21,9 C 27,8 C 26,1 C 53 % 0 lf 1012,1 hPa 0,0 l/m 2 min 0 min 642 W/m 23,0 km/h (4 Bft) 100,00 %
09.05.2016 10:06 22,1 C 27,8 C 27,2 C 53 % 0 lf 1012,1 hPa 0,0 l/m 2 min 0 min 646 W/m 29,3 km/h (5 Bft) 100,00 %
09.05.2016 10:08 22,1 C 27,2 C 27,2 C 52 % 0 lf 1012,2 hPa 0,0 l/m 2 min 0 min 650 W/m 29,3 km/h (5 Bft) 97,87 %
09.05.2016 10:10 22,2 C 27,2 C 27,2 C 52 % 0 lf 1012,1 hPa 0,0 l/m 2 min 0 min 656 W/m 33,5 km/h (5 Bft) 91,49 %
09.05.2016 10:12 22,2 C 27,8 C 27,2 C 52 % 0 lf 1012,2 hPa 0,0 l/m 2 min 0 min 659 W/m 23,0 km/h (4 Bft) 95,74 %
09.05.2016 10:14 22,3 C 27,8 C 27,8 C 52 % 0 lf 1012,1 hPa 0,0 l/m 2 min 0 min 664 W/m 29,3 km/h (5 Bft) 97,87 %
09.05.2016 10:16 22,3 C 27,2 C 26,7 C 51 % 0 lf 1012,1 hPa 0,0 l/m 2 min 0 min 669 W/m 37,7 km/h (5 Bft) 97,83 %
09.05.2016 10:18 22,4 C 26,1 C 26,7 C 50 % 0 lf 1012,1 hPa 0,0 l/m 2 min 0 min 673 W/m 27,2 km/h (4 Bft) 95,74 %
09.05.2016 10:20 22,4 C 27,8 C 26,7 C 51 % 0 lf 1012,1 hPa 0,0 l/m 2 min 0 min 678 W/m 23,0 km/h (4 Bft) 97,87 %
09.05.2016 10:22 22,4 C 28,3 C 27,8 C 51 % 0 lf 1012,1 hPa 0,0 l/m 2 min 0 min 685 W/m 25,1 km/h (4 Bft) 97,87 %
09.05.2016 10:24 22,5 C 27,8 C 28,3 C 51 % 0 lf 1012,1 hPa 0,0 l/m 2 min 0 min 688 W/m 29,3 km/h (5 Bft) 97,87 %
09.05.2016 10:26 22,6 C 26,7 C 27,8 C 50 % 0 lf 1012,1 hPa 0,0 l/m 2 min 0 min 693 W/m 31,4 km/h (5 Bft) 93,48 %
09.05.2016 10:28 22,6 C 26,1 C 27,8 C 50 % 0 lf 1012,1 hPa 0,0 l/m 2 min 0 min 696 W/m 29,3 km/h (5 Bft) 93,62 %
09.05.2016 10:30 22,6 C 26,7 C 27,8 C 50 % 0 lf 1012,1 hPa 0,0 l/m 2 min 0 min 701 W/m 27,2 km/h (4 Bft) 95,74 %
09.05.2016 10:32 22,6 C 26,7 C 27,8 C 51 % 0 lf 1012,1 hPa 0,0 l/m 2 min 0 min 704 W/m 27,2 km/h (4 Bft) 95,74 %
09.05.2016 10:34 22,6 C 27,2 C 27,2 C 50 % 0 lf 1012,1 hPa 0,0 l/m 2 min 0 min 708 W/m 29,3 km/h (5 Bft) 95,74 %
09.05.2016 10:36 22,6 C 26,7 C 27,2 C 50 % 0 lf 1012,1 hPa 0,0 l/m 2 min 0 min 712 W/m 29,3 km/h (5 Bft) 95,74 %
09.05.2016 10:38 22,6 C 26,7 C 27,8 C 50 % 0 lf 1012,1 hPa 0,0 l/m 2 min 0 min 717 W/m 25,1 km/h (4 Bft) 97,87 %
09.05.2016 10:40 22,6 C 26,7 C 27,8 C 50 % 0 lf 1012,0 hPa 0,0 l/m 2 min 0 min 721 W/m 23,0 km/h (4 Bft) 97,83 %
09.05.2016 10:42 22,7 C 27,8 C 28,3 C 50 % 0 lf 1012,1 hPa 0,0 l/m 2 min 0 min 727 W/m 27,2 km/h (4 Bft) 100,00 %
09.05.2016 10:44 22,7 C 27,8 C 28,9 C 50 % 0 lf 1012,1 hPa 0,0 l/m 2 min 0 min 730 W/m 16,7 km/h (3 Bft) 95,74 %
09.05.2016 10:46 22,8 C 28,9 C 28,9 C 51 % 0 lf 1012,0 hPa 0,0 l/m 2 min 0 min 736 W/m 25,1 km/h (4 Bft) 93,62 %
09.05.2016 10:48 22,9 C 27,8 C 29,4 C 49 % 0 lf 1012,0 hPa 0,0 l/m 2 min 0 min 741 W/m 25,1 km/h (4 Bft) 97,87 %
09.05.2016 10:50 22,9 C 27,8 C 28,9 C 49 % 0 lf 1012,0 hPa 0,0 l/m 2 min 0 min 744 W/m 33,5 km/h (5 Bft) 97,87 %
09.05.2016 10:52 23,1 C 28,3 C 28,3 C 50 % 0 lf 1012,0 hPa 0,0 l/m 2 min 0 min 750 W/m 33,5 km/h (5 Bft) 97,83 %
09.05.2016 10:54 23,1 C 28,9 C 28,3 C 49 % 0 lf 1012,1 hPa 0,0 l/m 2 min 0 min 752 W/m 31,4 km/h (5 Bft) 100,00 %
09.05.2016 10:56 23,2 C 28,9 C 28,9 C 49 % 0 lf 1012,0 hPa 0,0 l/m 2 min 0 min 757 W/m 29,3 km/h (5 Bft) 100,00 %
09.05.2016 10:58 23,2 C 27,8 C 28,3 C 48 % 0 lf 1012,0 hPa 0,0 l/m 2 min 0 min 759 W/m 37,7 km/h (5 Bft) 97,87 %
09.05.2016 11:00 23,0 C 26,7 C 27,8 C 48 % 0 lf 1012,1 hPa 0,0 l/m 2 min 0 min 763 W/m 35,6 km/h (5 Bft) 100,00 %
09.05.2016 11:02 22,9 C 28,3 C 27,8 C 49 % 0 lf 1012,0 hPa 0,0 l/m 2 min 0 min 767 W/m 29,3 km/h (5 Bft) 95,65 %
09.05.2016 11:04 22,9 C 28,3 C 28,3 C 51 % 0 lf 1012,0 hPa 0,0 l/m 2 min 0 min 771 W/m 23,0 km/h (4 Bft) 97,87 %
09.05.2016 11:06 23,0 C 29,4 C 28,3 C 50 % 0 lf 1012,0 hPa 0,0 l/m 2 min 0 min 773 W/m 27,2 km/h (4 Bft) 95,74 %
09.05.2016 11:08 23,0 C 30,0 C 28,3 C 49 % 0 lf 1012,0 hPa 0,0 l/m 2 min 0 min 776 W/m 23,0 km/h (4 Bft) 100,00 %
09.05.2016 11:10 23,1 C 29,4 C 28,3 C 49 % 0 lf 1011,9 hPa 0,0 l/m 2 min 0 min 780 W/m 27,2 km/h (4 Bft) 100,00 %
09.05.2016 11:12 23,2 C 30,0 C 28,3 C 48 % 0 lf 1011,9 hPa 0,0 l/m 2 min 0 min 782 W/m 35,6 km/h (5 Bft) 100,00 %
09.05.2016 11:14 23,4 C 30,6 C 28,3 C 48 % 0 lf 1011,9 hPa 0,0 l/m 2 min 0 min 788 W/m 31,4 km/h (5 Bft) 100,00 %
09.05.2016 11:16 23,4 C 28,9 C 27,8 C 49 % 0 lf 1011,9 hPa 0,0 l/m 2 min 0 min 792 W/m 27,2 km/h (4 Bft) 97,87 %
09.05.2016 11:18 23,3 C 28,3 C 27,2 C 48 % 0 lf 1012,0 hPa 0,0 l/m 2 min 0 min 795 W/m 29,3 km/h (5 Bft) 97,87 %
09.05.2016 11:20 23,4 C 30,0 C 26,7 C 49 % 0 lf 1011,9 hPa 0,0 l/m 2 min 0 min 796 W/m 25,1 km/h (4 Bft) 97,87 %
09.05.2016 11:22 23,4 C 29,4 C 26,1 C 48 % 0 lf 1011,8 hPa 0,0 l/m 2 min 0 min 798 W/m 20,9 km/h (4 Bft) 97,87 %
09.05.2016 11:24 23,6 C 30,0 C 25,6 C 48 % 0 lf 1011,8 hPa 0,0 l/m 2 min 0 min 802 W/m 27,2 km/h (4 Bft) 97,87 %
09.05.2016 11:26 23,4 C 30,6 C 25,6 C 47 % 0 lf 1011,8 hPa 0,0 l/m 2 min 0 min 807 W/m 18,8 km/h (3 Bft) 95,65 %
09.05.2016 11:28 23,5 C 30,0 C 26,1 C 47 % 0 lf 1011,8 hPa 0,0 l/m 2 min 0 min 810 W/m 23,0 km/h (4 Bft) 97,87 %
09.05.2016 11:30 23,6 C 30,0 C 27,2 C 47 % 0 lf 1011,8 hPa 0,0 l/m 2 min 0 min 810 W/m 27,2 km/h (4 Bft) 97,87 %
09.05.2016 11:32 23,7 C 29,4 C 28,3 C 45 % 0 lf 1011,8 hPa 0,0 l/m 2 min 0 min 816 W/m 43,9 km/h (6 Bft) 97,87 %
09.05.2016 11:34 23,7 C 30,0 C 27,8 C 45 % 0 lf 1011,8 hPa 0,0 l/m 2 min 0 min 819 W/m 46,0 km/h (6 Bft) 95,74 %
09.05.2016 11:36 23,5 C 28,9 C 27,8 C 46 % 0 lf 1011,8 hPa 0,0 l/m 2 min 0 min 823 W/m 33,5 km/h (5 Bft) 93,62 %
09.05.2016 11:38 23,6 C 29,4 C 29,4 C 46 % 0 lf 1011,8 hPa 0,0 l/m 2 min 0 min 828 W/m 25,1 km/h (4 Bft) 95,65 %
09.05.2016 11:40 23,7 C 29,4 C 29,4 C 45 % 0 lf 1011,8 hPa 0,0 l/m 2 min 0 min 830 W/m 43,9 km/h (6 Bft) 93,62 %
09.05.2016 11:42 23,7 C 30,0 C 29,4 C 46 % 0 lf 1011,8 hPa 0,0 l/m 2 min 0 min 721 W/m 35,6 km/h (5 Bft) 95,74 %
09.05.2016 11:44 23,6 C 29,4 C 30,0 C 45 % 0 lf 1011,7 hPa 0,0 l/m 2 min 0 min 736 W/m 27,2 km/h (4 Bft) 97,87 %
09.05.2016 11:46 23,6 C 28,9 C 28,9 C 46 % 0 lf 1011,7 hPa 0,0 l/m 2 min 0 min 823 W/m 29,3 km/h (5 Bft) 97,87 %
09.05.2016 11:48 23,7 C 28,3 C 28,9 C 46 % 0 lf 1011,6 hPa 0,0 l/m 2 min 0 min 841 W/m 39,7 km/h (6 Bft) 93,62 %
09.05.2016 11:50 23,7 C 29,4 C 28,9 C 46 % 0 lf 1011,7 hPa 0,0 l/m 2 min 0 min 845 W/m 39,7 km/h (6 Bft) 95,65 %
09.05.2016 11:52 23,7 C 28,9 C 29,4 C 45 % 0 lf 1011,8 hPa 0,0 l/m 2 min 0 min 849 W/m 35,6 km/h (5 Bft) 97,87 %
09.05.2016 11:54 23,8 C 30,0 C 30,0 C 46 % 0 lf 1011,6 hPa 0,0 l/m 2 min 0 min 854 W/m 18,8 km/h (3 Bft) 97,87 %
09.05.2016 11:56 23,9 C 30,6 C 30,6 C 46 % 0 lf 1011,6 hPa 0,0 l/m 2 min 0 min 856 W/m 31,4 km/h (5 Bft) 97,87 %
09.05.2016 11:58 24,4 C 31,7 C 31,1 C 47 % 0 lf 1011,6 hPa 0,0 l/m 2 min 0 min 841 W/m 18,8 km/h (3 Bft) 100,00 %
09.05.2016 12:00 24,4 C 30,6 C 30,0 C 45 % 0 lf 1011,6 hPa 0,0 l/m 2 min 0 min 827 W/m 27,2 km/h (4 Bft) 95,65 %
09.05.2016 12:02 24,1 C 29,4 C 28,9 C 45 % 0 lf 1011,6 hPa 0,0 l/m 2 min 0 min 850 W/m 33,5 km/h (5 Bft) 95,74 %
09.05.2016 12:04 23,9 C 28,9 C 28,3 C 44 % 0 lf 1011,7 hPa 0,0 l/m 2 min 0 min 842 W/m 31,4 km/h (5 Bft) 91,49 %
09.05.2016 12:06 23,9 C 30,6 C 28,3 C 44 % 0 lf 1011,6 hPa 0,0 l/m 2 min 0 min 858 W/m 23,0 km/h (4 Bft) 93,62 %
09.05.2016 12:08 24,1 C 31,1 C 29,4 C 46 % 0 lf 1011,6 hPa 0,0 l/m 2 min 0 min 858 W/m 25,1 km/h (4 Bft) 93,62 %
09.05.2016 12:10 24,4 C 31,7 C 29,4 C 46 % 0 lf 1011,6 hPa 0,0 l/m 2 min 0 min 642 W/m 16,7 km/h (3 Bft) 93,62 %
09.05.2016 12:12 24,5 C 32,2 C 29,4 C 45 % 0 lf 1011,5 hPa 0,0 l/m 0 min 0 min 253 W/m 29,3 km/h (5 Bft) 97,83 %
09.05.2016 12:14 24,8 C 32,2 C 30,6 C 45 % 0 lf 1011,5 hPa 0,0 l/m 2 min 0 min 878 W/m 18,8 km/h (3 Bft) 95,74 %
09.05.2016 12:16 24,9 C 31,7 C 30,6 C 43 % 0 lf 1011,4 hPa 0,0 l/m 2 min 0 min 881 W/m 33,5 km/h (5 Bft) 93,62 %
09.05.2016 12:18 24,9 C 31,7 C 31,1 C 44 % 0 lf 1011,4 hPa 0,0 l/m 2 min 0 min 882 W/m 27,2 km/h (4 Bft) 95,74 %
09.05.2016 12:20 24,8 C 30,0 C 30,0 C 45 % 0 lf 1011,4 hPa 0,0 l/m 2 min 0 min 879 W/m 27,2 km/h (4 Bft) 95,74 %
09.05.2016 12:22 24,8 C 31,1 C 29,4 C 45 % 0 lf 1011,4 hPa 0,0 l/m 2 min 0 min 871 W/m 25,1 km/h (4 Bft) 95,74 %
09.05.2016 12:24 24,8 C 30,6 C 30,0 C 44 % 0 lf 1011,5 hPa 0,0 l/m 2 min 0 min 882 W/m 27,2 km/h (4 Bft) 95,65 %
09.05.2016 12:26 24,9 C 31,7 C 30,6 C 44 % 0 lf 1011,5 hPa 0,0 l/m 2 min 0 min 889 W/m 20,9 km/h (4 Bft) 95,74 %
09.05.2016 12:28 25,0 C 32,2 C 30,6 C 44 % 0 lf 1011,5 hPa 0,0 l/m 2 min 0 min 897 W/m 43,9 km/h (6 Bft) 93,62 %
09.05.2016 12:30 24,9 C 30,6 C 28,9 C 42 % 0 lf 1011,5 hPa 0,0 l/m 2 min 0 min 906 W/m 39,7 km/h (6 Bft) 95,74 %
09.05.2016 12:32 24,8 C 30,0 C 29,4 C 43 % 0 lf 1011,5 hPa 0,0 l/m 2 min 0 min 917 W/m 35,6 km/h (5 Bft) 95,74 %
09.05.2016 12:34 24,9 C 30,6 C 30,0 C 43 % 0 lf 1011,5 hPa 0,0 l/m 2 min 0 min 897 W/m 29,3 km/h (5 Bft) 93,62 %
09.05.2016 12:36 24,8 C 30,0 C 30,0 C 43 % 0 lf 1011,5 hPa 0,0 l/m 2 min 0 min 882 W/m 35,6 km/h (5 Bft) 93,48 %
09.05.2016 12:38 24,7 C 30,6 C 28,9 C 43 % 0 lf 1011,5 hPa 0,0 l/m 2 min 0 min 843 W/m 33,5 km/h (5 Bft) 93,62 %
09.05.2016 12:40 24,6 C 31,1 C 28,9 C 43 % 0 lf 1011,4 hPa 0,0 l/m 2 min 0 min 874 W/m 25,1 km/h (4 Bft) 95,74 %
09.05.2016 12:42 24,7 C 31,1 C 28,9 C 43 % 0 lf 1011,5 hPa 0,0 l/m 2 min 0 min 912 W/m 37,7 km/h (5 Bft) 93,62 %
09.05.2016 12:44 24,8 C 30,6 C 29,4 C 43 % 0 lf 1011,6 hPa 0,0 l/m 2 min 0 min 915 W/m 35,6 km/h (5 Bft) 91,49 %
09.05.2016 12:46 24,9 C 32,2 C 29,4 C 45 % 0 lf 1011,5 hPa 0,0 l/m 2 min 0 min 915 W/m 18,8 km/h (3 Bft) 91,49 %
09.05.2016 12:48 25,0 C 30,6 C 28,3 C 42 % 0 lf 1011,6 hPa 0,0 l/m 2 min 0 min 915 W/m 33,5 km/h (5 Bft) 93,48 %
09.05.2016 12:50 24,9 C 30,6 C 27,8 C 43 % 0 lf 1011,6 hPa 0,0 l/m 2 min 0 min 913 W/m 25,1 km/h (4 Bft) 93,62 %
09.05.2016 12:52 24,8 C 30,0 C 27,8 C 43 % 0 lf 1011,6 hPa 0,0 l/m 2 min 0 min 912 W/m 20,9 km/h (4 Bft) 93,62 %
09.05.2016 12:54 24,7 C 31,1 C 27,8 C 44 % 0 lf 1011,6 hPa 0,0 l/m 2 min 0 min 908 W/m 25,1 km/h (4 Bft) 93,62 %
09.05.2016 12:56 25,1 C 31,1 C 27,8 C 43 % 0 lf 1011,5 hPa 0,0 l/m 2 min 0 min 913 W/m 29,3 km/h (5 Bft) 91,49 %
09.05.2016 12:58 25,3 C 31,1 C 27,2 C 43 % 0 lf 1011,5 hPa 0,0 l/m 2 min 0 min 914 W/m 23,0 km/h (4 Bft) 93,62 %
09.05.2016 13:00 25,1 C 30,0 C 26,1 C 43 % 0 lf 1011,4 hPa 0,0 l/m 2 min 0 min 919 W/m 23,0 km/h (4 Bft) 95,65 %
09.05.2016 13:02 25,1 C 31,1 C 26,1 C 44 % 0 lf 1011,4 hPa 0,0 l/m 2 min 0 min 918 W/m 27,2 km/h (4 Bft) 93,62 %
09.05.2016 13:04 25,1 C 31,1 C 26,1 C 44 % 0 lf 1011,4 hPa 0,0 l/m 2 min 0 min 923 W/m 35,6 km/h (5 Bft) 97,87 %
09.05.2016 13:06 25,2 C 30,6 C 25,6 C 42 % 0 lf 1011,4 hPa 0,0 l/m 2 min 0 min 861 W/m 33,5 km/h (5 Bft) 97,87 %
09.05.2016 13:08 25,1 C 30,6 C 25,6 C 43 % 0 lf 1011,4 hPa 0,0 l/m 2 min 0 min 842 W/m 27,2 km/h (4 Bft) 95,74 %
09.05.2016 13:10 25,2 C 30,0 C 25,6 C 41 % 0 lf 1011,4 hPa 0,0 l/m 2 min 0 min 877 W/m 31,4 km/h (5 Bft) 97,83 %
09.05.2016 13:12 25,1 C 30,0 C 25,6 C 41 % 0 lf 1011,3 hPa 0,0 l/m 2 min 0 min 859 W/m 29,3 km/h (5 Bft) 95,74 %
09.05.2016 13:14 25,1 C 31,1 C 25,6 C 43 % 0 lf 1011,3 hPa 0,0 l/m 2 min 0 min 892 W/m 20,9 km/h (4 Bft) 95,74 %
09.05.2016 13:16 25,3 C 32,2 C 25,6 C 43 % 0 lf 1011,3 hPa 0,0 l/m 2 min 0 min 902 W/m 23,0 km/h (4 Bft) 95,74 %
09.05.2016 13:18 25,3 C 31,7 C 25,6 C 42 % 0 lf 1011,3 hPa 0,0 l/m 2 min 0 min 903 W/m 16,7 km/h (3 Bft) 97,87 %
09.05.2016 13:20 25,5 C 32,2 C 25,6 C 42 % 0 lf 1011,3 hPa 0,0 l/m 2 min 0 min 881 W/m 29,3 km/h (5 Bft) 95,74 %
09.05.2016 13:22 25,8 C 32,8 C 25,6 C 41 % 0 lf 1011,2 hPa 0,0 l/m 2 min 0 min 876 W/m 31,4 km/h (5 Bft) 95,74 %
09.05.2016 13:24 25,7 C 31,1 C 25,6 C 40 % 0 lf 1011,4 hPa 0,0 l/m 2 min 0 min 887 W/m 31,4 km/h (5 Bft) 93,48 %
09.05.2016 13:26 25,6 C 31,1 C 25,6 C 40 % 0 lf 1011,3 hPa 0,0 l/m 2 min 0 min 846 W/m 31,4 km/h (5 Bft) 95,74 %
09.05.2016 13:28 25,4 C 30,0 C 25,6 C 41 % 0 lf 1011,3 hPa 0,0 l/m 2 min 0 min 837 W/m 18,8 km/h (3 Bft) 97,87 %
09.05.2016 13:30 25,4 C 30,6 C 25,6 C 43 % 0 lf 1011,3 hPa 0,0 l/m 2 min 0 min 813 W/m 14,6 km/h (3 Bft) 93,62 %
09.05.2016 13:32 25,4 C 31,1 C 25,6 C 43 % 0 lf 1011,3 hPa 0,0 l/m 2 min 0 min 698 W/m 23,0 km/h (4 Bft) 95,74 %
09.05.2016 13:34 25,4 C 30,6 C 25,6 C 41 % 0 lf 1011,2 hPa 0,0 l/m 2 min 0 min 830 W/m 25,1 km/h (4 Bft) 93,48 %
09.05.2016 13:36 25,4 C 31,1 C 25,0 C 42 % 0 lf 1011,3 hPa 0,0 l/m 2 min 0 min 896 W/m 27,2 km/h (4 Bft) 97,87 %
09.05.2016 13:38 25,7 C 31,1 C 25,6 C 42 % 0 lf 1011,2 hPa 0,0 l/m 2 min 0 min 858 W/m 35,6 km/h (5 Bft) 93,62 %
09.05.2016 13:40 25,8 C 31,1 C 26,1 C 41 % 0 lf 1011,3 hPa 0,0 l/m 2 min 0 min 778 W/m 23,0 km/h (4 Bft) 95,74 %
09.05.2016 13:42 25,6 C 29,4 C 25,6 C 40 % 0 lf 1011,3 hPa 0,0 l/m 2 min 0 min 774 W/m 31,4 km/h (5 Bft) 97,87 %
09.05.2016 13:44 25,6 C 30,6 C 25,6 C 43 % 0 lf 1011,3 hPa 0,0 l/m 2 min 0 min 783 W/m 25,1 km/h (4 Bft) 97,87 %
09.05.2016 13:46 25,6 C 30,6 C 25,0 C 40 % 0 lf 1011,3 hPa 0,0 l/m 2 min 0 min 732 W/m 27,2 km/h (4 Bft) 93,48 %
09.05.2016 13:48 25,5 C 30,0 C 25,0 C 39 % 0 lf 1011,3 hPa 0,0 l/m 2 min 0 min 772 W/m 31,4 km/h (5 Bft) 95,74 %
09.05.2016 13:50 25,7 C 31,7 C 25,6 C 41 % 0 lf 1011,3 hPa 0,0 l/m 2 min 0 min 834 W/m 31,4 km/h (5 Bft) 95,74 %
09.05.2016 13:52 25,9 C 32,2 C 25,6 C 42 % 0 lf 1011,3 hPa 0,0 l/m 2 min 0 min 854 W/m 27,2 km/h (4 Bft) 95,74 %
09.05.2016 13:54 26,1 C 32,2 C 26,1 C 41 % 0 lf 1011,3 hPa 0,0 l/m 2 min 0 min 874 W/m 20,9 km/h (4 Bft) 95,74 %
09.05.2016 13:56 26,2 C 32,2 C 26,1 C 40 % 0 lf 1011,3 hPa 0,0 l/m 2 min 0 min 837 W/m 23,0 km/h (4 Bft) 100,00 %
09.05.2016 13:58 26,0 C 31,1 C 25,6 C 39 % 0 lf 1011,4 hPa 0,0 l/m 2 min 0 min 824 W/m 31,4 km/h (5 Bft) 97,83 %
09.05.2016 14:00 25,9 C 30,6 C 25,6 C 40 % 0 lf 1011,4 hPa 0,0 l/m 2 min 0 min 835 W/m 20,9 km/h (4 Bft) 100,00 %
09.05.2016 14:02 25,8 C 30,0 C 25,6 C 42 % 0 lf 1011,4 hPa 0,0 l/m 2 min 0 min 817 W/m 18,8 km/h (3 Bft) 100,00 %
09.05.2016 14:04 25,8 C 30,6 C 25,6 C 41 % 0 lf 1011,4 hPa 0,0 l/m 2 min 0 min 801 W/m 29,3 km/h (5 Bft) 100,00 %
09.05.2016 14:06 25,7 C 30,6 C 25,0 C 39 % 0 lf 1011,3 hPa 0,0 l/m 2 min 0 min 804 W/m 25,1 km/h (4 Bft) 97,87 %
09.05.2016 14:08 25,8 C 31,1 C 25,0 C 42 % 0 lf 1011,3 hPa 0,0 l/m 2 min 0 min 805 W/m 27,2 km/h (4 Bft) 100,00 %
09.05.2016 14:10 25,9 C 30,6 C 25,0 C 39 % 0 lf 1011,3 hPa 0,0 l/m 2 min 0 min 747 W/m 31,4 km/h (5 Bft) 97,83 %
09.05.2016 14:12 25,9 C 31,1 C 25,6 C 40 % 0 lf 1011,3 hPa 0,0 l/m 2 min 0 min 689 W/m 23,0 km/h (4 Bft) 100,00 %
09.05.2016 14:14 26,0 C 31,1 C 25,0 C 40 % 0 lf 1011,2 hPa 0,0 l/m 2 min 0 min 701 W/m 23,0 km/h (4 Bft) 97,87 %
09.05.2016 14:16 26,2 C 31,1 C 25,6 C 40 % 0 lf 1011,2 hPa 0,0 l/m 2 min 0 min 703 W/m 20,9 km/h (4 Bft) 100,00 %
09.05.2016 14:18 26,3 C 31,1 C 25,6 C 41 % 0 lf 1011,2 hPa 0,0 l/m 2 min 0 min 695 W/m 25,1 km/h (4 Bft) 97,87 %
09.05.2016 14:20 26,3 C 32,2 C 26,1 C 42 % 0 lf 1011,2 hPa 0,0 l/m 2 min 0 min 840 W/m 25,1 km/h (4 Bft) 97,87 %
09.05.2016 14:22 26,3 C 32,2 C 26,1 C 40 % 0 lf 1011,2 hPa 0,0 l/m 2 min 0 min 817 W/m 18,8 km/h (3 Bft) 100,00 %
09.05.2016 14:24 26,4 C 32,8 C 26,1 C 41 % 0 lf 1011,2 hPa 0,0 l/m 2 min 0 min 902 W/m 10,5 km/h (2 Bft) 97,87 %
09.05.2016 14:26 26,7 C 32,8 C 26,1 C 41 % 0 lf 1011,3 hPa 0,0 l/m 2 min 0 min 883 W/m 20,9 km/h (4 Bft) 97,87 %
09.05.2016 14:28 26,6 C 31,7 C 26,1 C 39 % 0 lf 1011,3 hPa 0,0 l/m 2 min 0 min 874 W/m 20,9 km/h (4 Bft) 100,00 %
09.05.2016 14:30 26,6 C 30,6 C 26,1 C 39 % 0 lf 1011,2 hPa 0,0 l/m 2 min 0 min 898 W/m 27,2 km/h (4 Bft) 100,00 %
09.05.2016 14:32 26,4 C 30,0 C 25,6 C 39 % 0 lf 1011,3 hPa 0,0 l/m 2 min 0 min 885 W/m 23,0 km/h (4 Bft) 97,87 %
09.05.2016 14:34 26,4 C 31,7 C 25,6 C 40 % 0 lf 1011,2 hPa 0,0 l/m 2 min 0 min 941 W/m 20,9 km/h (4 Bft) 100,00 %
09.05.2016 14:36 26,7 C 32,2 C 26,1 C 39 % 0 lf 1011,2 hPa 0,0 l/m 2 min 0 min 916 W/m 20,9 km/h (4 Bft) 100,00 %
09.05.2016 14:38 26,9 C 32,8 C 26,1 C 39 % 0 lf 1011,2 hPa 0,0 l/m 2 min 0 min 879 W/m 18,8 km/h (3 Bft) 100,00 %
09.05.2016 14:40 27,0 C 31,7 C 26,1 C 38 % 0 lf 1011,2 hPa 0,0 l/m 2 min 0 min 844 W/m 25,1 km/h (4 Bft) 100,00 %
09.05.2016 14:42 26,8 C 31,7 C 25,6 C 38 % 0 lf 1011,2 hPa 0,0 l/m 2 min 0 min 826 W/m 20,9 km/h (4 Bft) 100,00 %
09.05.2016 14:44 26,7 C 31,1 C 25,6 C 39 % 0 lf 1011,1 hPa 0,0 l/m 2 min 0 min 802 W/m 31,4 km/h (5 Bft) 97,87 %
09.05.2016 14:46 26,7 C 30,6 C 25,6 C 39 % 0 lf 1011,2 hPa 0,0 l/m 2 min 0 min 776 W/m 23,0 km/h (4 Bft) 100,00 %
09.05.2016 14:48 26,4 C 32,2 C 25,6 C 39 % 0 lf 1011,1 hPa 0,0 l/m 2 min 0 min 820 W/m 25,1 km/h (4 Bft) 100,00 %
09.05.2016 14:50 26,4 C 32,2 C 25,6 C 37 % 0 lf 1011,0 hPa 0,0 l/m 2 min 0 min 838 W/m 31,4 km/h (5 Bft) 100,00 %
09.05.2016 14:52 26,5 C 31,1 C 25,6 C 38 % 0 lf 1011,0 hPa 0,0 l/m 2 min 0 min 840 W/m 31,4 km/h (5 Bft) 97,87 %
09.05.2016 14:54 26,5 C 31,1 C 25,6 C 40 % 0 lf 1011,0 hPa 0,0 l/m 2 min 0 min 766 W/m 31,4 km/h (5 Bft) 100,00 %
09.05.2016 14:56 26,4 C 30,6 C 25,6 C 38 % 0 lf 1011,1 hPa 0,0 l/m 2 min 0 min 873 W/m 31,4 km/h (5 Bft) 100,00 %
09.05.2016 14:58 26,5 C 31,1 C 25,6 C 39 % 0 lf 1011,0 hPa 0,0 l/m 2 min 0 min 831 W/m 25,1 km/h (4 Bft) 93,62 %
09.05.2016 15:00 26,5 C 30,6 C 25,6 C 38 % 0 lf 1011,1 hPa 0,0 l/m 2 min 0 min 868 W/m 29,3 km/h (5 Bft) 100,00 %
09.05.2016 15:02 26,5 C 30,6 C 25,6 C 39 % 0 lf 1011,1 hPa 0,0 l/m 2 min 0 min 889 W/m 27,2 km/h (4 Bft) 100,00 %
09.05.2016 15:04 26,7 C 30,6 C 26,1 C 38 % 0 lf 1011,2 hPa 0,0 l/m 2 min 0 min 778 W/m 18,8 km/h (3 Bft) 97,87 %
09.05.2016 15:06 26,7 C 31,1 C 25,6 C 38 % 0 lf 1011,2 hPa 0,0 l/m 2 min 0 min 754 W/m 31,4 km/h (5 Bft) 100,00 %
09.05.2016 15:08 26,6 C 31,1 C 25,6 C 38 % 0 lf 1011,1 hPa 0,0 l/m 2 min 0 min 721 W/m 27,2 km/h (4 Bft) 100,00 %
09.05.2016 15:10 26,5 C 31,1 C 25,6 C 38 % 0 lf 1011,1 hPa 0,0 l/m 2 min 0 min 766 W/m 12,6 km/h (3 Bft) 97,87 %
09.05.2016 15:12 26,7 C 32,2 C 25,6 C 38 % 0 lf 1011,1 hPa 0,0 l/m 2 min 0 min 888 W/m 18,8 km/h (3 Bft) 97,87 %
09.05.2016 15:14 26,7 C 31,1 C 25,6 C 38 % 0 lf 1011,0 hPa 0,0 l/m 2 min 0 min 912 W/m 23,0 km/h (4 Bft) 97,87 %
09.05.2016 15:16 26,8 C 31,1 C 25,6 C 38 % 0 lf 1011,1 hPa 0,0 l/m 2 min 0 min 917 W/m 31,4 km/h (5 Bft) 97,87 %
09.05.2016 15:18 26,7 C 30,6 C 25,6 C 37 % 0 lf 1011,1 hPa 0,0 l/m 2 min 0 min 918 W/m 37,7 km/h (5 Bft) 97,87 %
09.05.2016 15:20 26,7 C 31,1 C 25,6 C 36 % 0 lf 1011,0 hPa 0,0 l/m 2 min 0 min 668 W/m 25,1 km/h (4 Bft) 95,65 %
09.05.2016 15:22 26,7 C 31,1 C 25,6 C 37 % 0 lf 1010,9 hPa 0,0 l/m 2 min 0 min 749 W/m 25,1 km/h (4 Bft) 91,49 %
09.05.2016 15:24 26,8 C 31,1 C 25,6 C 38 % 0 lf 1011,0 hPa 0,0 l/m 2 min 0 min 713 W/m 33,5 km/h (5 Bft) 91,49 %
09.05.2016 15:26 26,8 C 30,0 C 25,6 C 37 % 0 lf 1011,0 hPa 0,0 l/m 2 min 0 min 701 W/m 27,2 km/h (4 Bft) 89,36 %
09.05.2016 15:28 26,7 C 31,1 C 25,6 C 38 % 0 lf 1010,9 hPa 0,0 l/m 2 min 0 min 703 W/m 29,3 km/h (5 Bft) 89,36 %
09.05.2016 15:30 26,7 C 30,6 C 25,6 C 38 % 0 lf 1010,9 hPa 0,0 l/m 2 min 0 min 696 W/m 23,0 km/h (4 Bft) 91,49 %
09.05.2016 15:32 26,6 C 30,6 C 25,6 C 37 % 0 lf 1010,9 hPa 0,0 l/m 2 min 0 min 705 W/m 33,5 km/h (5 Bft) 86,96 %
09.05.2016 15:34 26,5 C 30,0 C 25,6 C 37 % 0 lf 1010,9 hPa 0,0 l/m 2 min 0 min 552 W/m 31,4 km/h (5 Bft) 91,49 %
09.05.2016 15:36 26,4 C 30,0 C 25,6 C 38 % 0 lf 1010,8 hPa 0,0 l/m 2 min 0 min 522 W/m 23,0 km/h (4 Bft) 87,23 %
09.05.2016 15:38 26,6 C 31,1 C 25,6 C 40 % 0 lf 1010,8 hPa 0,0 l/m 2 min 0 min 736 W/m 33,5 km/h (5 Bft) 87,23 %
09.05.2016 15:40 26,7 C 31,1 C 25,6 C 38 % 0 lf 1010,8 hPa 0,0 l/m 2 min 0 min 800 W/m 33,5 km/h (5 Bft) 89,36 %
09.05.2016 15:42 26,7 C 30,6 C 25,6 C 37 % 0 lf 1010,9 hPa 0,0 l/m 2 min 0 min 810 W/m 27,2 km/h (4 Bft) 91,49 %
09.05.2016 15:44 26,7 C 30,6 C 26,1 C 38 % 0 lf 1010,8 hPa 0,0 l/m 2 min 0 min 824 W/m 27,2 km/h (4 Bft) 93,48 %
09.05.2016 15:46 26,8 C 31,1 C 26,1 C 39 % 0 lf 1010,8 hPa 0,0 l/m 2 min 0 min 734 W/m 18,8 km/h (3 Bft) 91,49 %
09.05.2016 15:48 26,9 C 31,7 C 26,1 C 39 % 0 lf 1010,9 hPa 0,0 l/m 2 min 0 min 738 W/m 20,9 km/h (4 Bft) 91,49 %
09.05.2016 15:50 27,0 C 31,7 C 26,1 C 40 % 0 lf 1010,8 hPa 0,0 l/m 2 min 0 min 729 W/m 18,8 km/h (3 Bft) 89,36 %
09.05.2016 15:52 26,9 C 31,1 C 26,1 C 38 % 0 lf 1010,7 hPa 0,0 l/m 2 min 0 min 767 W/m 18,8 km/h (3 Bft) 89,36 %
09.05.2016 15:54 26,9 C 32,2 C 26,1 C 40 % 0 lf 1010,7 hPa 0,0 l/m 2 min 0 min 802 W/m 20,9 km/h (4 Bft) 91,49 %
09.05.2016 15:56 27,1 C 31,7 C 26,7 C 38 % 0 lf 1010,7 hPa 0,0 l/m 2 min 0 min 753 W/m 23,0 km/h (4 Bft) 91,30 %
09.05.2016 15:58 27,2 C 32,2 C 26,7 C 39 % 0 lf 1010,7 hPa 0,0 l/m 2 min 0 min 678 W/m 31,4 km/h (5 Bft) 89,36 %
09.05.2016 16:00 27,2 C 31,7 C 26,7 C 40 % 0 lf 1010,7 hPa 0,0 l/m 2 min 0 min 608 W/m 23,0 km/h (4 Bft) 95,74 %
09.05.2016 16:02 27,0 C 30,0 C 26,1 C 39 % 0 lf 1010,7 hPa 0,0 l/m 2 min 0 min 551 W/m 31,4 km/h (5 Bft) 93,62 %
09.05.2016 16:04 26,7 C 28,9 C 25,6 C 39 % 0 lf 1010,7 hPa 0,0 l/m 2 min 0 min 514 W/m 20,9 km/h (4 Bft) 93,62 %
09.05.2016 16:06 26,4 C 28,3 C 25,6 C 39 % 0 lf 1010,7 hPa 0,0 l/m 2 min 0 min 538 W/m 25,1 km/h (4 Bft) 91,30 %
09.05.2016 16:08 26,4 C 28,9 C 25,6 C 40 % 0 lf 1010,7 hPa 0,0 l/m 2 min 0 min 585 W/m 25,1 km/h (4 Bft) 93,62 %
09.05.2016 16:10 26,4 C 30,0 C 26,1 C 41 % 0 lf 1010,7 hPa 0,0 l/m 2 min 0 min 638 W/m 23,0 km/h (4 Bft) 95,74 %
09.05.2016 16:12 26,6 C 30,0 C 26,7 C 39 % 0 lf 1010,7 hPa 0,0 l/m 2 min 0 min 653 W/m 18,8 km/h (3 Bft) 93,62 %
09.05.2016 16:14 26,7 C 30,6 C 27,2 C 40 % 0 lf 1010,7 hPa 0,0 l/m 2 min 0 min 620 W/m 31,4 km/h (5 Bft) 93,62 %
09.05.2016 16:16 26,7 C 30,0 C 27,2 C 39 % 0 lf 1010,7 hPa 0,0 l/m 2 min 0 min 573 W/m 25,1 km/h (4 Bft) 93,62 %
09.05.2016 16:18 26,6 C 30,0 C 27,8 C 40 % 0 lf 1010,7 hPa 0,0 l/m 2 min 0 min 563 W/m 27,2 km/h (4 Bft) 97,83 %
09.05.2016 16:20 26,6 C 29,4 C 27,2 C 40 % 0 lf 1010,7 hPa 0,0 l/m 2 min 0 min 530 W/m 29,3 km/h (5 Bft) 95,74 %
09.05.2016 16:22 26,5 C 29,4 C 27,2 C 40 % 0 lf 1010,7 hPa 0,0 l/m 2 min 0 min 494 W/m 25,1 km/h (4 Bft) 95,74 %
09.05.2016 16:24 26,5 C 30,0 C 27,2 C 40 % 0 lf 1010,6 hPa 0,0 l/m 2 min 0 min 505 W/m 25,1 km/h (4 Bft) 97,87 %
09.05.2016 16:26 26,4 C 29,4 C 27,8 C 40 % 0 lf 1010,6 hPa 0,0 l/m 2 min 0 min 526 W/m 18,8 km/h (3 Bft) 95,74 %
09.05.2016 16:28 26,3 C 28,9 C 27,2 C 40 % 0 lf 1010,6 hPa 0,0 l/m 2 min 0 min 538 W/m 18,8 km/h (3 Bft) 100,00 %
09.05.2016 16:30 26,3 C 30,0 C 27,2 C 41 % 0 lf 1010,6 hPa 0,0 l/m 2 min 0 min 588 W/m 25,1 km/h (4 Bft) 100,00 %
09.05.2016 16:32 26,3 C 30,0 C 26,7 C 41 % 0 lf 1010,5 hPa 0,0 l/m 2 min 0 min 651 W/m 23,0 km/h (4 Bft) 97,87 %
09.05.2016 16:34 26,5 C 30,0 C 27,2 C 40 % 0 lf 1010,6 hPa 0,0 l/m 2 min 0 min 678 W/m 23,0 km/h (4 Bft) 100,00 %
09.05.2016 16:36 26,7 C 31,1 C 27,8 C 42 % 0 lf 1010,5 hPa 0,0 l/m 2 min 0 min 702 W/m 27,2 km/h (4 Bft) 97,87 %
09.05.2016 16:38 26,8 C 32,2 C 27,2 C 40 % 0 lf 1010,5 hPa 0,0 l/m 2 min 0 min 702 W/m 27,2 km/h (4 Bft) 100,00 %
09.05.2016 16:40 26,7 C 31,7 C 27,2 C 39 % 0 lf 1010,4 hPa 0,0 l/m 2 min 0 min 630 W/m 18,8 km/h (3 Bft) 97,87 %
09.05.2016 16:42 26,7 C 30,6 C 26,7 C 39 % 0 lf 1010,4 hPa 0,0 l/m 2 min 0 min 472 W/m 25,1 km/h (4 Bft) 100,00 %
09.05.2016 16:44 26,7 C 30,0 C 26,1 C 40 % 0 lf 1010,4 hPa 0,0 l/m 2 min 0 min 406 W/m 23,0 km/h (4 Bft) 97,87 %
09.05.2016 16:46 26,6 C 29,4 C 25,6 C 41 % 0 lf 1010,4 hPa 0,0 l/m 2 min 0 min 350 W/m 20,9 km/h (4 Bft) 100,00 %
09.05.2016 16:48 26,4 C 28,9 C 25,6 C 41 % 0 lf 1010,3 hPa 0,0 l/m 2 min 0 min 325 W/m 16,7 km/h (3 Bft) 97,87 %
09.05.2016 16:50 26,4 C 28,9 C 25,6 C 40 % 0 lf 1010,3 hPa 0,0 l/m 2 min 0 min 344 W/m 27,2 km/h (4 Bft) 97,87 %
09.05.2016 16:52 26,4 C 28,9 C 25,6 C 40 % 0 lf 1010,1 hPa 0,0 l/m 2 min 0 min 359 W/m 25,1 km/h (4 Bft) 100,00 %
09.05.2016 16:54 26,4 C 28,3 C 25,6 C 40 % 0 lf 1010,2 hPa 0,0 l/m 2 min 0 min 393 W/m 23,0 km/h (4 Bft) 100,00 %
09.05.2016 16:56 26,4 C 28,3 C 25,6 C 40 % 0 lf 1010,2 hPa 0,0 l/m 2 min 0 min 360 W/m 29,3 km/h (5 Bft) 100,00 %
09.05.2016 16:58 26,4 C 27,8 C 25,6 C 39 % 0 lf 1010,2 hPa 0,0 l/m 2 min 0 min 321 W/m 29,3 km/h (5 Bft) 100,00 %
09.05.2016 17:00 26,3 C 27,8 C 25,6 C 40 % 0 lf 1010,2 hPa 0,0 l/m 2 min 0 min 308 W/m 25,1 km/h (4 Bft) 100,00 %
09.05.2016 17:02 26,2 C 27,2 C 25,6 C 41 % 0 lf 1010,3 hPa 0,0 l/m 2 min 0 min 303 W/m 25,1 km/h (4 Bft) 97,87 %
09.05.2016 17:04 26,1 C 27,2 C 25,6 C 41 % 0 lf 1010,2 hPa 0,0 l/m 2 min 0 min 307 W/m 27,2 km/h (4 Bft) 100,00 %
09.05.2016 17:06 26,1 C 27,2 C 25,0 C 41 % 0 lf 1010,2 hPa 0,0 l/m 2 min 0 min 288 W/m 27,2 km/h (4 Bft) 97,83 %
09.05.2016 17:08 26,0 C 27,2 C 25,0 C 42 % 0 lf 1010,1 hPa 0,0 l/m 2 min 0 min 285 W/m 20,9 km/h (4 Bft) 97,87 %
09.05.2016 17:10 26,0 C 27,8 C 25,6 C 42 % 0 lf 1010,1 hPa 0,0 l/m 2 min 0 min 287 W/m 14,6 km/h (3 Bft) 100,00 %
09.05.2016 17:12 26,0 C 27,8 C 25,0 C 42 % 0 lf 1010,1 hPa 0,0 l/m 2 min 0 min 304 W/m 18,8 km/h (3 Bft) 97,87 %
09.05.2016 17:14 26,0 C 27,2 C 25,6 C 42 % 0 lf 1010,1 hPa 0,0 l/m 2 min 0 min 322 W/m 18,8 km/h (3 Bft) 95,74 %
09.05.2016 17:16 25,9 C 27,8 C 25,0 C 42 % 0 lf 1010,1 hPa 0,0 l/m 2 min 0 min 335 W/m 25,1 km/h (4 Bft) 100,00 %
09.05.2016 17:18 26,0 C 27,8 C 25,6 C 43 % 0 lf 1010,1 hPa 0,0 l/m 2 min 0 min 350 W/m 18,8 km/h (3 Bft) 97,87 %
09.05.2016 17:20 26,0 C 27,8 C 25,6 C 40 % 0 lf 1010,1 hPa 0,0 l/m 2 min 0 min 368 W/m 29,3 km/h (5 Bft) 100,00 %
09.05.2016 17:22 26,1 C 28,3 C 25,6 C 42 % 0 lf 1010,2 hPa 0,0 l/m 2 min 0 min 407 W/m 18,8 km/h (3 Bft) 100,00 %
09.05.2016 17:24 26,1 C 28,3 C 25,6 C 41 % 0 lf 1010,1 hPa 0,0 l/m 2 min 0 min 382 W/m 20,9 km/h (4 Bft) 95,74 %
09.05.2016 17:26 26,2 C 27,8 C 25,6 C 42 % 0 lf 1010,1 hPa 0,0 l/m 2 min 0 min 375 W/m 18,8 km/h (3 Bft) 97,87 %
09.05.2016 17:28 26,3 C 27,8 C 25,6 C 42 % 0 lf 1010,1 hPa 0,0 l/m 2 min 0 min 351 W/m 16,7 km/h (3 Bft) 95,74 %
09.05.2016 17:30 26,3 C 28,3 C 25,6 C 41 % 0 lf 1010,1 hPa 0,0 l/m 2 min 0 min 356 W/m 29,3 km/h (5 Bft) 93,48 %
09.05.2016 17:32 26,3 C 28,3 C 25,6 C 40 % 0 lf 1010,1 hPa 0,0 l/m 2 min 0 min 395 W/m 20,9 km/h (4 Bft) 95,74 %
09.05.2016 17:34 26,4 C 27,8 C 25,6 C 39 % 0 lf 1010,1 hPa 0,0 l/m 2 min 0 min 430 W/m 27,2 km/h (4 Bft) 97,87 %
09.05.2016 17:36 26,4 C 27,8 C 25,6 C 40 % 0 lf 1010,0 hPa 0,0 l/m 2 min 0 min 452 W/m 29,3 km/h (5 Bft) 95,74 %
09.05.2016 17:38 26,4 C 28,3 C 25,6 C 40 % 0 lf 1010,0 hPa 0,0 l/m 2 min 0 min 452 W/m 31,4 km/h (5 Bft) 97,87 %
09.05.2016 17:40 26,4 C 27,8 C 25,6 C 41 % 0 lf 1010,1 hPa 0,0 l/m 2 min 0 min 471 W/m 27,2 km/h (4 Bft) 97,83 %
09.05.2016 17:42 26,5 C 28,3 C 25,6 C 40 % 0 lf 1010,1 hPa 0,0 l/m 2 min 0 min 525 W/m 27,2 km/h (4 Bft) 95,74 %
09.05.2016 17:44 26,6 C 28,3 C 25,6 C 40 % 0 lf 1010,0 hPa 0,0 l/m 2 min 0 min 453 W/m 29,3 km/h (5 Bft) 97,87 %
09.05.2016 17:46 26,7 C 28,3 C 25,6 C 39 % 0 lf 1010,0 hPa 0,0 l/m 2 min 0 min 407 W/m 18,8 km/h (3 Bft) 100,00 %
09.05.2016 17:48 26,7 C 28,3 C 25,6 C 38 % 0 lf 1010,0 hPa 0,0 l/m 2 min 0 min 425 W/m 35,6 km/h (5 Bft) 97,87 %
09.05.2016 17:50 26,7 C 27,8 C 25,6 C 39 % 0 lf 1010,0 hPa 0,0 l/m 2 min 0 min 436 W/m 27,2 km/h (4 Bft) 95,74 %
09.05.2016 17:52 26,6 C 27,8 C 25,6 C 38 % 0 lf 1010,0 hPa 0,0 l/m 2 min 0 min 487 W/m 27,2 km/h (4 Bft) 95,65 %
09.05.2016 17:54 26,6 C 27,8 C 25,6 C 38 % 0 lf 1010,0 hPa 0,0 l/m 2 min 0 min 461 W/m 31,4 km/h (5 Bft) 95,74 %
09.05.2016 17:56 26,6 C 27,2 C 25,6 C 38 % 0 lf 1010,0 hPa 0,0 l/m 2 min 0 min 417 W/m 31,4 km/h (5 Bft) 95,74 %
09.05.2016 17:58 26,6 C 27,2 C 25,0 C 40 % 0 lf 1009,9 hPa 0,0 l/m 2 min 0 min 399 W/m 27,2 km/h (4 Bft) 93,62 %
09.05.2016 18:00 26,6 C 27,2 C 25,0 C 38 % 0 lf 1009,9 hPa 0,0 l/m 2 min 0 min 279 W/m 23,0 km/h (4 Bft) 97,87 %
09.05.2016 18:02 26,5 C 27,2 C 25,0 C 40 % 0 lf 1009,9 hPa 0,0 l/m 2 min 0 min 232 W/m 18,8 km/h (3 Bft) 97,87 %
09.05.2016 18:04 26,4 C 27,2 C 25,0 C 39 % 0 lf 1009,8 hPa 0,0 l/m 0 min 0 min 221 W/m 18,8 km/h (3 Bft) 97,87 %
09.05.2016 18:06 26,3 C 27,2 C 25,0 C 40 % 0 lf 1009,7 hPa 0,0 l/m 0 min 0 min 214 W/m 18,8 km/h (3 Bft) 95,74 %
09.05.2016 18:08 26,3 C 26,7 C 25,0 C 39 % 0 lf 1009,8 hPa 0,0 l/m 0 min 0 min 208 W/m 27,2 km/h (4 Bft) 95,74 %
09.05.2016 18:10 26,2 C 26,7 C 25,0 C 40 % 0 lf 1009,6 hPa 0,0 l/m 0 min 0 min 212 W/m 27,2 km/h (4 Bft) 93,62 %
09.05.2016 18:12 26,2 C 26,7 C 25,0 C 40 % 0 lf 1009,8 hPa 0,0 l/m 2 min 0 min 222 W/m 29,3 km/h (5 Bft) 97,87 %
09.05.2016 18:14 26,1 C 26,7 C 25,0 C 39 % 0 lf 1009,7 hPa 0,0 l/m 2 min 0 min 223 W/m 25,1 km/h (4 Bft) 93,62 %
09.05.2016 18:16 26,1 C 26,7 C 25,0 C 40 % 0 lf 1009,7 hPa 0,0 l/m 2 min 0 min 238 W/m 23,0 km/h (4 Bft) 97,83 %
09.05.2016 18:18 26,1 C 26,7 C 25,0 C 40 % 0 lf 1009,7 hPa 0,0 l/m 2 min 0 min 316 W/m 23,0 km/h (4 Bft) 95,74 %
09.05.2016 18:20 26,1 C 27,2 C 24,4 C 40 % 0 lf 1009,7 hPa 0,0 l/m 2 min 0 min 357 W/m 23,0 km/h (4 Bft) 97,87 %
09.05.2016 18:22 26,2 C 27,2 C 25,0 C 41 % 0 lf 1009,7 hPa 0,0 l/m 2 min 0 min 403 W/m 23,0 km/h (4 Bft) 95,74 %
09.05.2016 18:24 26,2 C 27,2 C 25,0 C 41 % 0 lf 1009,7 hPa 0,0 l/m 2 min 0 min 375 W/m 16,7 km/h (3 Bft) 95,74 %
09.05.2016 18:26 26,3 C 27,2 C 25,0 C 41 % 0 lf 1009,7 hPa 0,0 l/m 2 min 0 min 329 W/m 16,7 km/h (3 Bft) 97,87 %
09.05.2016 18:28 26,3 C 27,2 C 25,0 C 41 % 0 lf 1009,8 hPa 0,0 l/m 2 min 0 min 318 W/m 18,8 km/h (3 Bft) 95,65 %
09.05.2016 18:30 26,2 C 27,2 C 25,0 C 41 % 0 lf 1009,8 hPa 0,0 l/m 2 min 0 min 202 W/m 20,9 km/h (4 Bft) 95,74 %
09.05.2016 18:32 26,1 C 26,7 C 24,4 C 41 % 0 lf 1009,8 hPa 0,0 l/m 0 min 0 min 181 W/m 29,3 km/h (5 Bft) 95,74 %
09.05.2016 18:34 25,9 C 26,1 C 24,4 C 41 % 0 lf 1009,8 hPa 0,0 l/m 0 min 0 min 176 W/m 20,9 km/h (4 Bft) 95,74 %
09.05.2016 18:36 25,8 C 26,1 C 24,4 C 42 % 0 lf 1009,8 hPa 0,0 l/m 0 min 0 min 171 W/m 18,8 km/h (3 Bft) 97,87 %
09.05.2016 18:38 25,8 C 26,1 C 24,4 C 42 % 0 lf 1009,8 hPa 0,0 l/m 0 min 0 min 165 W/m 14,6 km/h (3 Bft) 95,74 %
09.05.2016 18:40 25,7 C 26,1 C 24,4 C 43 % 0 lf 1009,8 hPa 0,0 l/m 0 min 0 min 160 W/m 18,8 km/h (3 Bft) 93,48 %
09.05.2016 18:42 25,6 C 26,1 C 23,9 C 42 % 0 lf 1009,8 hPa 0,0 l/m 0 min 0 min 155 W/m 16,7 km/h (3 Bft) 95,74 %
09.05.2016 18:44 25,6 C 26,1 C 23,9 C 42 % 0 lf 1009,8 hPa 0,0 l/m 0 min 0 min 150 W/m 16,7 km/h (3 Bft) 89,36 %
09.05.2016 18:46 25,5 C 26,1 C 23,9 C 41 % 0 lf 1009,8 hPa 0,0 l/m 0 min 0 min 149 W/m 25,1 km/h (4 Bft) 95,74 %
09.05.2016 18:48 25,5 C 26,1 C 23,9 C 40 % 0 lf 1009,8 hPa 0,0 l/m 0 min 0 min 147 W/m 29,3 km/h (5 Bft) 95,74 %
09.05.2016 18:50 25,4 C 26,1 C 23,9 C 41 % 0 lf 1009,8 hPa 0,0 l/m 0 min 0 min 143 W/m 27,2 km/h (4 Bft) 95,74 %
09.05.2016 18:52 25,4 C 26,1 C 23,9 C 41 % 0 lf 1009,7 hPa 0,0 l/m 0 min 0 min 139 W/m 29,3 km/h (5 Bft) 89,13 %
09.05.2016 18:54 25,4 C 26,1 C 23,9 C 41 % 0 lf 1009,7 hPa 0,0 l/m 0 min 0 min 136 W/m 18,8 km/h (3 Bft) 93,62 %
09.05.2016 18:56 25,3 C 26,1 C 23,3 C 42 % 0 lf 1009,7 hPa 0,0 l/m 0 min 0 min 134 W/m 18,8 km/h (3 Bft) 93,62 %
09.05.2016 18:58 25,2 C 26,1 C 23,3 C 42 % 0 lf 1009,8 hPa 0,0 l/m 0 min 0 min 134 W/m 14,6 km/h (3 Bft) 91,49 %
09.05.2016 19:00 25,2 C 26,1 C 23,3 C 42 % 0 lf 1009,8 hPa 0,0 l/m 0 min 0 min 135 W/m 16,7 km/h (3 Bft) 93,62 %
09.05.2016 19:02 25,1 C 26,1 C 23,3 C 42 % 0 lf 1009,8 hPa 0,0 l/m 0 min 0 min 136 W/m 20,9 km/h (4 Bft) 93,62 %
09.05.2016 19:04 25,1 C 26,1 C 23,3 C 42 % 0 lf 1009,8 hPa 0,0 l/m 0 min 0 min 144 W/m 18,8 km/h (3 Bft) 95,65 %
09.05.2016 19:06 25,1 C 25,6 C 23,3 C 43 % 0 lf 1009,9 hPa 0,0 l/m 2 min 0 min 152 W/m 23,0 km/h (4 Bft) 95,74 %
09.05.2016 19:08 25,1 C 25,6 C 23,3 C 43 % 0 lf 1009,9 hPa 0,0 l/m 2 min 0 min 167 W/m 20,9 km/h (4 Bft) 95,74 %
09.05.2016 19:10 25,1 C 25,6 C 23,3 C 42 % 0 lf 1009,9 hPa 0,0 l/m 2 min 0 min 182 W/m 25,1 km/h (4 Bft) 93,62 %
09.05.2016 19:12 25,1 C 25,6 C 23,3 C 42 % 0 lf 1010,0 hPa 0,0 l/m 2 min 0 min 197 W/m 20,9 km/h (4 Bft) 93,62 %
09.05.2016 19:14 25,1 C 25,6 C 23,3 C 42 % 0 lf 1009,9 hPa 0,0 l/m 2 min 0 min 179 W/m 16,7 km/h (3 Bft) 89,13 %
09.05.2016 19:16 25,1 C 25,6 C 23,3 C 43 % 0 lf 1009,9 hPa 0,0 l/m 2 min 0 min 161 W/m 18,8 km/h (3 Bft) 93,62 %
09.05.2016 19:18 25,1 C 25,6 C 23,3 C 43 % 0 lf 1009,9 hPa 0,0 l/m 2 min 0 min 169 W/m 23,0 km/h (4 Bft) 95,74 %
09.05.2016 19:20 25,1 C 25,6 C 23,3 C 43 % 0 lf 1010,0 hPa 0,0 l/m 2 min 0 min 188 W/m 18,8 km/h (3 Bft) 93,62 %
09.05.2016 19:22 25,1 C 25,6 C 23,3 C 44 % 0 lf 1010,0 hPa 0,0 l/m 2 min 0 min 174 W/m 16,7 km/h (3 Bft) 93,62 %
09.05.2016 19:24 25,1 C 25,6 C 23,3 C 43 % 0 lf 1010,0 hPa 0,0 l/m 2 min 0 min 152 W/m 16,7 km/h (3 Bft) 91,49 %
09.05.2016 19:26 25,0 C 25,6 C 23,3 C 44 % 0 lf 1009,9 hPa 0,0 l/m 2 min 0 min 132 W/m 20,9 km/h (4 Bft) 95,65 %
09.05.2016 19:28 24,9 C 25,0 C 23,3 C 43 % 0 lf 1009,9 hPa 0,0 l/m 2 min 0 min 122 W/m 18,8 km/h (3 Bft) 91,49 %
09.05.2016 19:30 24,9 C 25,0 C 23,3 C 44 % 0 lf 1009,9 hPa 0,0 l/m 0 min 0 min 115 W/m 18,8 km/h (3 Bft) 93,62 %
09.05.2016 19:32 24,9 C 25,0 C 23,3 C 44 % 0 lf 1009,9 hPa 0,0 l/m 0 min 0 min 109 W/m 16,7 km/h (3 Bft) 91,49 %
09.05.2016 19:34 24,8 C 25,0 C 23,3 C 44 % 0 lf 1009,8 hPa 0,0 l/m 0 min 0 min 102 W/m 18,8 km/h (3 Bft) 95,74 %
09.05.2016 19:36 24,8 C 25,0 C 22,8 C 45 % 0 lf 1009,8 hPa 0,0 l/m 0 min 0 min 98 W/m 16,7 km/h (3 Bft) 93,62 %
09.05.2016 19:38 24,7 C 25,0 C 22,8 C 45 % 0 lf 1009,9 hPa 0,0 l/m 0 min 0 min 98 W/m 14,6 km/h (3 Bft) 93,48 %
09.05.2016 19:40 24,7 C 25,0 C 22,8 C 44 % 0 lf 1010,0 hPa 0,0 l/m 0 min 0 min 97 W/m 14,6 km/h (3 Bft) 97,87 %
09.05.2016 19:42 24,6 C 25,0 C 22,8 C 45 % 0 lf 1010,0 hPa 0,0 l/m 0 min 0 min 93 W/m 16,7 km/h (3 Bft) 95,74 %
09.05.2016 19:44 24,6 C 25,0 C 22,8 C 45 % 0 lf 1010,0 hPa 0,0 l/m 0 min 0 min 90 W/m 16,7 km/h (3 Bft) 97,87 %
09.05.2016 19:46 24,5 C 25,0 C 22,8 C 44 % 0 lf 1010,0 hPa 0,0 l/m 0 min 0 min 87 W/m 16,7 km/h (3 Bft) 97,87 %
09.05.2016 19:48 24,5 C 24,4 C 22,2 C 45 % 0 lf 1010,1 hPa 0,0 l/m 0 min 0 min 84 W/m 14,6 km/h (3 Bft) 91,49 %
09.05.2016 19:50 24,4 C 24,4 C 22,2 C 45 % 0 lf 1010,0 hPa 0,0 l/m 0 min 0 min 79 W/m 10,5 km/h (2 Bft) 95,65 %
09.05.2016 19:52 24,4 C 24,4 C 22,2 C 46 % 0 lf 1010,0 hPa 0,0 l/m 0 min 0 min 75 W/m 14,6 km/h (3 Bft) 97,87 %
09.05.2016 19:54 24,3 C 24,4 C 22,2 C 46 % 0 lf 1010,1 hPa 0,0 l/m 0 min 0 min 68 W/m 16,7 km/h (3 Bft) 97,87 %
09.05.2016 19:56 24,3 C 24,4 C 21,7 C 46 % 0 lf 1010,1 hPa 0,0 l/m 0 min 0 min 63 W/m 16,7 km/h (3 Bft) 97,87 %
09.05.2016 19:58 24,3 C 23,9 C 21,7 C 46 % 0 lf 1010,1 hPa 0,0 l/m 0 min 0 min 60 W/m 10,5 km/h (2 Bft) 95,74 %
09.05.2016 20:00 24,3 C 23,9 C 21,7 C 46 % 0 lf 1010,1 hPa 0,0 l/m 0 min 0 min 72 W/m 6,3 km/h (2 Bft) 95,74 %
09.05.2016 20:02 24,3 C 23,9 C 21,7 C 46 % 0 lf 1010,1 hPa 0,0 l/m 2 min 0 min 76 W/m 12,6 km/h (3 Bft) 97,83 %
09.05.2016 20:04 24,3 C 23,9 C 21,1 C 46 % 0 lf 1010,1 hPa 0,0 l/m 0 min 0 min 68 W/m 14,6 km/h (3 Bft) 97,87 %
09.05.2016 20:06 24,3 C 23,9 C 21,1 C 46 % 0 lf 1010,0 hPa 0,0 l/m 0 min 0 min 53 W/m 10,5 km/h (2 Bft) 97,87 %
09.05.2016 20:08 24,3 C 23,9 C 21,1 C 47 % 0 lf 1010,0 hPa 0,0 l/m 0 min 0 min 47 W/m 10,5 km/h (2 Bft) 100,00 %
09.05.2016 20:10 24,3 C 23,3 C 21,1 C 47 % 0 lf 1010,1 hPa 0,0 l/m 0 min 0 min 46 W/m 10,5 km/h (2 Bft) 97,87 %
09.05.2016 20:12 24,2 C 23,3 C 21,1 C 47 % 0 lf 1010,1 hPa 0,0 l/m 0 min 0 min 46 W/m 10,5 km/h (2 Bft) 97,87 %
09.05.2016 20:14 24,2 C 23,3 C 21,1 C 47 % 0 lf 1010,1 hPa 0,0 l/m 0 min 0 min 47 W/m 14,6 km/h (3 Bft) 100,00 %
09.05.2016 20:16 24,2 C 23,3 C 21,1 C 47 % 0 lf 1010,1 hPa 0,0 l/m 0 min 0 min 46 W/m 8,4 km/h (2 Bft) 95,74 %
09.05.2016 20:18 24,2 C 23,3 C 21,1 C 47 % 0 lf 1010,1 hPa 0,0 l/m 0 min 0 min 43 W/m 10,5 km/h (2 Bft) 100,00 %
09.05.2016 20:20 24,1 C 23,3 C 21,1 C 47 % 0 lf 1010,1 hPa 0,0 l/m 0 min 0 min 41 W/m 10,5 km/h (2 Bft) 95,74 %
09.05.2016 20:22 24,1 C 23,3 C 21,1 C 47 % 0 lf 1010,1 hPa 0,0 l/m 0 min 0 min 39 W/m 10,5 km/h (2 Bft) 97,87 %
09.05.2016 20:24 24,1 C 23,3 C 21,1 C 47 % 0 lf 1010,1 hPa 0,0 l/m 0 min 0 min 36 W/m 10,5 km/h (2 Bft) 100,00 %
09.05.2016 20:26 24,1 C 23,3 C 21,1 C 47 % 0 lf 1010,1 hPa 0,0 l/m 0 min 0 min 34 W/m 4,2 km/h (1 Bft) 100,00 %
09.05.2016 20:28 24,0 C 23,3 C 20,6 C 48 % 0 lf 1010,1 hPa 0,0 l/m 0 min 0 min 32 W/m 6,3 km/h (2 Bft) 95,74 %
09.05.2016 20:30 23,9 C 23,3 C 20,6 C 48 % 0 lf 1010,2 hPa 0,0 l/m 0 min 0 min 28 W/m 6,3 km/h (2 Bft) 97,87 %
09.05.2016 20:32 23,9 C 23,3 C 20,6 C 48 % 0 lf 1010,2 hPa 0,0 l/m 0 min 0 min 25 W/m 8,4 km/h (2 Bft) 97,87 %
09.05.2016 20:34 23,9 C 23,3 C 20,6 C 48 % 0 lf 1010,2 hPa 0,0 l/m 0 min 0 min 23 W/m 8,4 km/h (2 Bft) 93,62 %
09.05.2016 20:36 23,9 C 22,8 C 20,6 C 48 % 0 lf 1010,2 hPa 0,0 l/m 0 min 0 min 21 W/m 10,5 km/h (2 Bft) 97,83 %
09.05.2016 20:38 23,8 C 22,8 C 20,0 C 48 % 0 lf 1010,2 hPa 0,0 l/m 0 min 0 min 19 W/m 8,4 km/h (2 Bft) 95,74 %
09.05.2016 20:40 23,8 C 22,8 C 20,6 C 48 % 0 lf 1010,2 hPa 0,0 l/m 0 min 0 min 18 W/m 8,4 km/h (2 Bft) 95,74 %
09.05.2016 20:42 23,7 C 23,3 C 20,6 C 48 % 0 lf 1010,3 hPa 0,0 l/m 0 min 0 min 16 W/m 14,6 km/h (3 Bft) 95,74 %
09.05.2016 20:44 23,7 C 23,3 C 20,6 C 48 % 0 lf 1010,2 hPa 0,0 l/m 0 min 0 min 15 W/m 16,7 km/h (3 Bft) 95,74 %
09.05.2016 20:46 23,6 C 23,3 C 20,6 C 48 % 0 lf 1010,2 hPa 0,0 l/m 0 min 0 min 13 W/m 8,4 km/h (2 Bft) 97,87 %
09.05.2016 20:48 23,6 C 22,8 C 20,6 C 48 % 0 lf 1010,2 hPa 0,0 l/m 0 min 0 min 12 W/m 8,4 km/h (2 Bft) 97,83 %
09.05.2016 20:50 23,6 C 22,8 C 20,6 C 48 % 0 lf 1010,2 hPa 0,0 l/m 0 min 0 min 11 W/m 8,4 km/h (2 Bft) 93,62 %
09.05.2016 20:52 23,5 C 22,8 C 20,0 C 47 % 0 lf 1010,2 hPa 0,0 l/m 0 min 0 min 10 W/m 10,5 km/h (2 Bft) 97,87 %
09.05.2016 20:54 23,5 C 22,8 C 20,6 C 47 % 0 lf 1010,3 hPa 0,0 l/m 0 min 0 min 9 W/m 10,5 km/h (2 Bft) 97,87 %
09.05.2016 20:56 23,4 C 22,8 C 20,6 C 47 % 0 lf 1010,3 hPa 0,0 l/m 0 min 0 min 8 W/m 8,4 km/h (2 Bft) 95,74 %
09.05.2016 20:58 23,4 C 22,8 C 20,0 C 47 % 0 lf 1010,3 hPa 0,0 l/m 0 min 0 min 7 W/m 6,3 km/h (2 Bft) 97,87 %
09.05.2016 21:00 23,4 C 22,8 C 20,0 C 47 % 0 lf 1010,3 hPa 0,0 l/m 0 min 0 min 7 W/m 6,3 km/h (2 Bft) 97,83 %
09.05.2016 21:02 23,3 C 22,8 C 20,0 C 48 % 0 lf 1010,3 hPa 0,0 l/m 0 min 0 min 5 W/m 6,3 km/h (2 Bft) 97,87 %
09.05.2016 21:04 23,3 C 22,8 C 19,4 C 47 % 0 lf 1010,3 hPa 0,0 l/m 0 min 0 min 5 W/m 8,4 km/h (2 Bft) 95,74 %
09.05.2016 21:06 23,3 C 22,8 C 19,4 C 47 % 0 lf 1010,4 hPa 0,0 l/m 0 min 0 min 4 W/m 8,4 km/h (2 Bft) 97,87 %
09.05.2016 21:08 23,3 C 22,8 C 19,4 C 47 % 0 lf 1010,4 hPa 0,0 l/m 0 min 0 min 0 W/m 12,6 km/h (3 Bft) 95,74 %
09.05.2016 21:10 23,2 C 22,8 C 19,4 C 47 % 0 lf 1010,4 hPa 0,0 l/m 0 min 0 min 0 W/m 6,3 km/h (2 Bft) 97,87 %
09.05.2016 21:12 23,2 C 22,8 C 19,4 C 47 % 0 lf 1010,4 hPa 0,0 l/m 0 min 0 min 0 W/m 6,3 km/h (2 Bft) 100,00 %
09.05.2016 21:14 23,2 C 22,8 C 20,0 C 47 % 0 lf 1010,4 hPa 0,0 l/m 0 min 0 min 0 W/m 10,5 km/h (2 Bft) 100,00 %
09.05.2016 21:16 23,2 C 22,8 C 20,0 C 47 % 0 lf 1010,4 hPa 0,0 l/m 0 min 0 min 0 W/m 6,3 km/h (2 Bft) 97,87 %
09.05.2016 21:18 23,1 C 22,8 C 20,0 C 47 % 0 lf 1010,5 hPa 0,0 l/m 0 min 0 min 0 W/m 10,5 km/h (2 Bft) 97,87 %
09.05.2016 21:20 23,1 C 22,8 C 20,0 C 47 % 0 lf 1010,4 hPa 0,0 l/m 0 min 0 min 0 W/m 14,6 km/h (3 Bft) 100,00 %
09.05.2016 21:22 23,1 C 22,8 C 20,0 C 47 % 0 lf 1010,4 hPa 0,0 l/m 0 min 0 min 0 W/m 16,7 km/h (3 Bft) 97,87 %
09.05.2016 21:24 23,0 C 22,2 C 20,0 C 47 % 0 lf 1010,5 hPa 0,0 l/m 0 min 0 min 0 W/m 10,5 km/h (2 Bft) 97,83 %
09.05.2016 21:26 23,0 C 22,2 C 20,0 C 47 % 0 lf 1010,5 hPa 0,0 l/m 0 min 0 min 0 W/m 14,6 km/h (3 Bft) 95,74 %
09.05.2016 21:28 22,9 C 22,2 C 20,0 C 47 % 0 lf 1010,5 hPa 0,0 l/m 0 min 0 min 0 W/m 6,3 km/h (2 Bft) 97,87 %
09.05.2016 21:30 22,9 C 22,8 C 20,0 C 47 % 0 lf 1010,5 hPa 0,0 l/m 0 min 0 min 0 W/m 14,6 km/h (3 Bft) 95,74 %
09.05.2016 21:32 22,9 C 22,2 C 20,0 C 47 % 0 lf 1010,5 hPa 0,0 l/m 0 min 0 min 0 W/m 10,5 km/h (2 Bft) 97,87 %
09.05.2016 21:34 22,8 C 22,2 C 20,0 C 47 % 0 lf 1010,5 hPa 0,0 l/m 0 min 0 min 0 W/m 12,6 km/h (3 Bft) 95,74 %
09.05.2016 21:36 22,8 C 22,2 C 20,0 C 47 % 0 lf 1010,6 hPa 0,0 l/m 0 min 0 min 0 W/m 10,5 km/h (2 Bft) 97,83 %
09.05.2016 21:38 22,8 C 22,2 C 20,0 C 48 % 0 lf 1010,6 hPa 0,0 l/m 0 min 0 min 0 W/m 10,5 km/h (2 Bft) 97,87 %
09.05.2016 21:40 22,8 C 22,2 C 20,0 C 48 % 0 lf 1010,5 hPa 0,0 l/m 0 min 0 min 0 W/m 6,3 km/h (2 Bft) 97,87 %
09.05.2016 21:42 22,7 C 22,2 C 20,0 C 48 % 0 lf 1010,6 hPa 0,0 l/m 0 min 0 min 0 W/m 10,5 km/h (2 Bft) 97,87 %
09.05.2016 21:44 22,7 C 22,2 C 20,0 C 48 % 0 lf 1010,6 hPa 0,0 l/m 0 min 0 min 0 W/m 12,6 km/h (3 Bft) 97,87 %
09.05.2016 21:46 22,7 C 22,2 C 20,0 C 48 % 0 lf 1010,6 hPa 0,0 l/m 0 min 0 min 0 W/m 12,6 km/h (3 Bft) 95,74 %
09.05.2016 21:48 22,7 C 21,7 C 19,4 C 49 % 0 lf 1010,6 hPa 0,0 l/m 0 min 0 min 0 W/m 8,4 km/h (2 Bft) 100,00 %
09.05.2016 21:50 22,6 C 21,7 C 19,4 C 49 % 0 lf 1010,6 hPa 0,0 l/m 0 min 0 min 0 W/m 12,6 km/h (3 Bft) 95,74 %
09.05.2016 21:52 22,6 C 21,7 C 19,4 C 49 % 0 lf 1010,6 hPa 0,0 l/m 0 min 0 min 0 W/m 12,6 km/h (3 Bft) 95,74 %
09.05.2016 21:54 22,6 C 21,7 C 19,4 C 49 % 0 lf 1010,6 hPa 0,0 l/m 0 min 0 min 0 W/m 6,3 km/h (2 Bft) 97,87 %
09.05.2016 21:56 22,5 C 21,7 C 19,4 C 49 % 0 lf 1010,6 hPa 0,0 l/m 0 min 0 min 0 W/m 6,3 km/h (2 Bft) 95,74 %
09.05.2016 21:58 22,4 C 21,1 C 18,9 C 49 % 0 lf 1010,6 hPa 0,0 l/m 0 min 0 min 0 W/m 10,5 km/h (2 Bft) 100,00 %
09.05.2016 22:00 22,4 C 21,7 C 18,9 C 50 % 0 lf 1010,6 hPa 0,0 l/m 0 min 0 min 0 W/m 14,6 km/h (3 Bft) 93,62 %
09.05.2016 22:02 22,4 C 21,7 C 18,9 C 50 % 0 lf 1010,7 hPa 0,0 l/m 0 min 0 min 0 W/m 10,5 km/h (2 Bft) 93,62 %
09.05.2016 22:04 22,3 C 21,1 C 18,9 C 50 % 0 lf 1010,7 hPa 0,0 l/m 0 min 0 min 0 W/m 12,6 km/h (3 Bft) 89,36 %
09.05.2016 22:06 22,3 C 21,7 C 18,9 C 50 % 0 lf 1010,7 hPa 0,0 l/m 0 min 0 min 0 W/m 12,6 km/h (3 Bft) 95,74 %
09.05.2016 22:08 22,3 C 21,7 C 18,9 C 51 % 0 lf 1010,7 hPa 0,0 l/m 0 min 0 min 0 W/m 16,7 km/h (3 Bft) 95,74 %
09.05.2016 22:10 22,2 C 21,7 C 18,9 C 51 % 0 lf 1010,7 hPa 0,0 l/m 0 min 0 min 0 W/m 16,7 km/h (3 Bft) 95,65 %
09.05.2016 22:12 22,2 C 21,7 C 19,4 C 51 % 0 lf 1010,7 hPa 0,0 l/m 0 min 0 min 0 W/m 14,6 km/h (3 Bft) 95,74 %
09.05.2016 22:14 22,1 C 21,7 C 19,4 C 52 % 0 lf 1010,7 hPa 0,0 l/m 0 min 0 min 0 W/m 18,8 km/h (3 Bft) 95,74 %
09.05.2016 22:16 22,1 C 21,7 C 19,4 C 52 % 0 lf 1010,7 hPa 0,0 l/m 0 min 0 min 0 W/m 10,5 km/h (2 Bft) 95,74 %
09.05.2016 22:18 22,1 C 21,7 C 19,4 C 52 % 0 lf 1010,7 hPa 0,0 l/m 0 min 0 min 0 W/m 12,6 km/h (3 Bft) 95,74 %
09.05.2016 22:20 22,0 C 21,7 C 19,4 C 52 % 0 lf 1010,8 hPa 0,0 l/m 0 min 0 min 0 W/m 14,6 km/h (3 Bft) 97,87 %
09.05.2016 22:22 22,0 C 21,7 C 19,4 C 52 % 0 lf 1010,8 hPa 0,0 l/m 0 min 0 min 0 W/m 14,6 km/h (3 Bft) 93,48 %
09.05.2016 22:24 21,9 C 21,7 C 19,4 C 52 % 0 lf 1010,8 hPa 0,0 l/m 0 min 0 min 0 W/m 12,6 km/h (3 Bft) 95,74 %
09.05.2016 22:26 21,9 C 21,7 C 19,4 C 52 % 0 lf 1010,8 hPa 0,0 l/m 0 min 0 min 0 W/m 14,6 km/h (3 Bft) 93,62 %
09.05.2016 22:28 21,9 C 21,7 C 19,4 C 52 % 0 lf 1010,8 hPa 0,0 l/m 0 min 0 min 0 W/m 12,6 km/h (3 Bft) 95,74 %
09.05.2016 22:30 21,9 C 21,7 C 19,4 C 53 % 0 lf 1010,8 hPa 0,0 l/m 0 min 0 min 0 W/m 10,5 km/h (2 Bft) 95,74 %
09.05.2016 22:32 21,9 C 21,7 C 19,4 C 53 % 0 lf 1010,8 hPa 0,0 l/m 0 min 0 min 0 W/m 16,7 km/h (3 Bft) 91,49 %
09.05.2016 22:34 21,8 C 21,7 C 19,4 C 53 % 0 lf 1010,8 hPa 0,0 l/m 0 min 0 min 0 W/m 16,7 km/h (3 Bft) 95,65 %
09.05.2016 22:36 21,8 C 21,7 C 19,4 C 53 % 0 lf 1010,8 hPa 0,0 l/m 0 min 0 min 0 W/m 14,6 km/h (3 Bft) 95,74 %
09.05.2016 22:38 21,8 C 21,7 C 19,4 C 53 % 0 lf 1010,9 hPa 0,0 l/m 0 min 0 min 0 W/m 10,5 km/h (2 Bft) 97,87 %
09.05.2016 22:40 21,8 C 21,1 C 19,4 C 53 % 0 lf 1010,9 hPa 0,0 l/m 0 min 0 min 0 W/m 14,6 km/h (3 Bft) 95,74 %
09.05.2016 22:42 21,7 C 21,1 C 19,4 C 53 % 0 lf 1010,8 hPa 0,0 l/m 0 min 0 min 0 W/m 10,5 km/h (2 Bft) 95,74 %
09.05.2016 22:44 21,7 C 21,1 C 18,9 C 53 % 0 lf 1010,8 hPa 0,0 l/m 0 min 0 min 0 W/m 23,0 km/h (4 Bft) 95,74 %
09.05.2016 22:46 21,7 C 21,1 C 19,4 C 53 % 0 lf 1010,8 hPa 0,0 l/m 0 min 0 min 0 W/m 23,0 km/h (4 Bft) 95,65 %
09.05.2016 22:48 21,7 C 21,7 C 19,4 C 54 % 0 lf 1010,8 hPa 0,0 l/m 0 min 0 min 0 W/m 14,6 km/h (3 Bft) 93,62 %
09.05.2016 22:50 21,7 C 21,1 C 19,4 C 54 % 0 lf 1010,8 hPa 0,0 l/m 0 min 0 min 0 W/m 14,6 km/h (3 Bft) 97,87 %
09.05.2016 22:52 21,7 C 21,1 C 19,4 C 54 % 0 lf 1010,8 hPa 0,0 l/m 0 min 0 min 0 W/m 10,5 km/h (2 Bft) 97,87 %
09.05.2016 22:54 21,7 C 21,1 C 18,9 C 54 % 0 lf 1010,9 hPa 0,0 l/m 0 min 0 min 0 W/m 14,6 km/h (3 Bft) 95,74 %
09.05.2016 22:56 21,7 C 21,1 C 18,9 C 54 % 0 lf 1010,8 hPa 0,0 l/m 0 min 0 min 0 W/m 10,5 km/h (2 Bft) 97,87 %
09.05.2016 22:58 21,6 C 21,1 C 18,9 C 55 % 0 lf 1010,8 hPa 0,0 l/m 0 min 0 min 0 W/m 14,6 km/h (3 Bft) 97,83 %
09.05.2016 23:00 21,6 C 21,1 C 18,9 C 55 % 0 lf 1010,8 hPa 0,0 l/m 0 min 0 min 0 W/m 18,8 km/h (3 Bft) 97,87 %
09.05.2016 23:02 21,6 C 21,1 C 18,9 C 55 % 0 lf 1010,8 hPa 0,0 l/m 0 min 0 min 0 W/m 10,5 km/h (2 Bft) 100,00 %
09.05.2016 23:04 21,6 C 21,1 C 18,9 C 55 % 0 lf 1010,8 hPa 0,0 l/m 0 min 0 min 0 W/m 12,6 km/h (3 Bft) 97,87 %
09.05.2016 23:06 21,6 C 21,1 C 18,9 C 55 % 0 lf 1010,9 hPa 0,0 l/m 0 min 0 min 0 W/m 10,5 km/h (2 Bft) 93,62 %
09.05.2016 23:08 21,5 C 20,6 C 18,3 C 55 % 0 lf 1010,8 hPa 0,0 l/m 0 min 0 min 0 W/m 10,5 km/h (2 Bft) 95,65 %
09.05.2016 23:10 21,5 C 20,6 C 18,3 C 56 % 0 lf 1010,8 hPa 0,0 l/m 0 min 0 min 0 W/m 16,7 km/h (3 Bft) 95,74 %
09.05.2016 23:12 21,4 C 20,6 C 18,3 C 56 % 0 lf 1010,8 hPa 0,0 l/m 0 min 0 min 0 W/m 12,6 km/h (3 Bft) 87,23 %
09.05.2016 23:14 21,4 C 20,6 C 18,3 C 56 % 0 lf 1010,8 hPa 0,0 l/m 0 min 0 min 0 W/m 12,6 km/h (3 Bft) 97,87 %
09.05.2016 23:16 21,4 C 20,6 C 18,3 C 56 % 0 lf 1010,8 hPa 0,0 l/m 0 min 0 min 0 W/m 12,6 km/h (3 Bft) 95,74 %
09.05.2016 23:18 21,3 C 20,6 C 18,3 C 56 % 0 lf 1010,7 hPa 0,0 l/m 0 min 0 min 0 W/m 16,7 km/h (3 Bft) 100,00 %
09.05.2016 23:20 21,3 C 20,6 C 18,3 C 56 % 0 lf 1010,8 hPa 0,0 l/m 0 min 0 min 0 W/m 10,5 km/h (2 Bft) 95,65 %
09.05.2016 23:22 21,3 C 20,6 C 18,3 C 57 % 0 lf 1010,8 hPa 0,0 l/m 0 min 0 min 0 W/m 10,5 km/h (2 Bft) 97,87 %
09.05.2016 23:24 21,2 C 20,6 C 18,3 C 57 % 0 lf 1010,8 hPa 0,0 l/m 0 min 0 min 0 W/m 14,6 km/h (3 Bft) 95,74 %
09.05.2016 23:26 21,2 C 20,6 C 18,3 C 57 % 0 lf 1010,8 hPa 0,0 l/m 0 min 0 min 0 W/m 8,4 km/h (2 Bft) 93,62 %
09.05.2016 23:28 21,2 C 20,6 C 18,3 C 57 % 0 lf 1010,8 hPa 0,0 l/m 0 min 0 min 0 W/m 10,5 km/h (2 Bft) 95,74 %
09.05.2016 23:30 21,2 C 20,6 C 18,3 C 57 % 0 lf 1010,8 hPa 0,0 l/m 0 min 0 min 0 W/m 8,4 km/h (2 Bft) 93,62 %
09.05.2016 23:32 21,1 C 20,6 C 18,3 C 57 % 0 lf 1010,8 hPa 0,0 l/m 0 min 0 min 0 W/m 10,5 km/h (2 Bft) 95,65 %
09.05.2016 23:34 21,1 C 20,6 C 17,8 C 57 % 0 lf 1010,8 hPa 0,0 l/m 0 min 0 min 0 W/m 8,4 km/h (2 Bft) 95,74 %
09.05.2016 23:36 21,1 C 20,6 C 18,3 C 57 % 0 lf 1010,8 hPa 0,0 l/m 0 min 0 min 0 W/m 10,5 km/h (2 Bft) 93,62 %
09.05.2016 23:38 21,0 C 20,0 C 17,8 C 58 % 0 lf 1010,8 hPa 0,0 l/m 0 min 0 min 0 W/m 10,5 km/h (2 Bft) 93,62 %
09.05.2016 23:40 21,0 C 20,0 C 17,8 C 58 % 0 lf 1010,8 hPa 0,0 l/m 0 min 0 min 0 W/m 10,5 km/h (2 Bft) 95,74 %
09.05.2016 23:42 20,9 C 20,0 C 17,8 C 58 % 0 lf 1010,8 hPa 0,0 l/m 0 min 0 min 0 W/m 6,3 km/h (2 Bft) 93,62 %
09.05.2016 23:44 20,9 C 20,0 C 17,8 C 58 % 0 lf 1010,9 hPa 0,0 l/m 0 min 0 min 0 W/m 6,3 km/h (2 Bft) 93,48 %
09.05.2016 23:46 20,9 C 20,0 C 17,2 C 58 % 0 lf 1010,8 hPa 0,0 l/m 0 min 0 min 0 W/m 10,5 km/h (2 Bft) 93,62 %
09.05.2016 23:48 20,8 C 19,4 C 17,2 C 58 % 0 lf 1010,8 hPa 0,0 l/m 0 min 0 min 0 W/m 6,3 km/h (2 Bft) 95,74 %
09.05.2016 23:50 20,8 C 19,4 C 17,2 C 58 % 0 lf 1010,8 hPa 0,0 l/m 0 min 0 min 0 W/m 8,4 km/h (2 Bft) 91,49 %
09.05.2016 23:52 20,8 C 19,4 C 16,7 C 58 % 0 lf 1010,8 hPa 0,0 l/m 0 min 0 min 0 W/m 10,5 km/h (2 Bft) 95,74 %
09.05.2016 23:54 20,7 C 19,4 C 16,7 C 59 % 0 lf 1010,8 hPa 0,0 l/m 0 min 0 min 0 W/m 8,4 km/h (2 Bft) 95,74 %
09.05.2016 23:56 20,7 C 19,4 C 16,7 C 59 % 0 lf 1010,8 hPa 0,0 l/m 0 min 0 min 0 W/m 4,2 km/h (1 Bft) 97,83 %
09.05.2016 23:58 20,7 C 19,4 C 16,7 C 59 % 0 lf 1010,9 hPa 0,0 l/m 0 min 0 min 0 W/m 8,4 km/h (2 Bft) 93,62 %
_ Min-Zeit 06:36 05:32 05:38 15:20 00:00 18:10 - - - - 03:24 15:32
Minimum _ 11,6 C 10,6 C 9,4 C 36 % 0 lf 1009,6 hPa - - - - 0,0 km/h (0 Bft) 86,96 %
_ Max-Zeit 15:58 13:22 11:58 06:58 00:00 09:14 00:00 06:20 00:00 14:34 11:34 00:12
Maximum _ 27,2 C 32,8 C 31,1 C 83 % 0 lf 1012,5 hPa 0,0 l/m 2 min 0 min 941 W/m 46,0 km/h
O-SO (6 Bft)
100,00 %
Durchschnitt _ 20,7 C 22,3 C 19,7 C 56 % 0 lf 1011,3 hPa #0,0 l/m #12:28 h #0 min. 470 W/m 16,8 km/h (3 Bft) 96,15 %
© 2016 W. Hausmann